M I D A S
Marine Information and Data Acquisition System
Tripno 1624 of the Zeeleeuw from 2008-12-09 08:39:32 to 2008-12-10 15:39:31
Back to CruiseResearch ActivitiesStationsMapUnderway DataData graphs

EquipmentUnitsComment
TimeDGPSUTC
LatitudeDGPSDM.mWGS84
LongitudeDGPSDM.mWGS84
TemperatureSBE03/SBE38deg celciusITS90
ConductivitySBE21S/mITS90
SalinitySBE21 Practical Salinity Units
ChlorophylAChelsea fluorimeterg/lCalibrated in Aceton
Missing or incorrect values are displayed as -999
Sea surface data collected by the RV Zeeleeuw from 2008-12-09 08:38:46 to 2008-12-10 15:40:52
                                                                                    Next 1000 lines
Time Latitude Longitude Temperature Conductivity Salinity ChlorophylA
2008-12-09 08:38:56 51°13.623 2°56.048 -999 0.032637 0.179729 -1.348809
2008-12-09 08:39:01 51°13.623 2°56.048 -999 0.032329 0.17801 -1.348809
2008-12-09 08:39:06 51°13.623 2°56.048 -999 0.03202 0.176296 -1.348809
2008-12-09 08:39:11 51°13.623 2°56.048 -999 0.032226 0.177447 -1.348809
2008-12-09 08:39:16 51°13.623 2°56.048 -999 0.032226 0.177447 -1.348809
2008-12-09 08:39:21 51°13.623 2°56.048 -999 0.032226 0.177453 -1.348809
2008-12-09 08:39:26 51°13.623 2°56.048 -999 0.032432 0.178605 -1.348809
2008-12-09 08:39:31 51°13.622 2°56.048 -999 0.032226 0.177466 -1.348809
2008-12-09 08:39:36 51°13.622 2°56.048 -999 0.03202 0.176324 -1.348809
2008-12-09 08:39:41 51°13.622 2°56.048 -999 0.032226 0.177475 -1.348809
2008-12-09 08:39:46 51°13.622 2°56.048 -999 0.032226 0.177475 -1.348809
2008-12-09 08:39:51 51°13.622 2°56.048 -999 0.032432 0.178623 -1.348809
2008-12-09 08:39:56 51°13.621 2°56.048 -999 0.032226 0.177484 -1.348809
2008-12-09 08:40:01 51°13.621 2°56.048 -999 0.032432 0.17863 -1.348809
2008-12-09 08:40:06 51°13.621 2°56.048 -999 0.031711 0.174625 -1.348809
2008-12-09 08:40:11 51°13.621 2°56.048 -999 0.030991 0.170619 -1.348809
2008-12-09 08:40:17 51°13.621 2°56.047 -999 0.030991 0.170619 -1.348809
2008-12-09 08:40:22 51°13.621 2°56.046 -999 0.030888 0.170045 -1.348809
2008-12-09 08:40:27 51°13.621 2°56.044 -999 0.031197 0.171759 -1.348809
2008-12-09 08:40:32 51°13.622 2°56.042 -999 0.030373 0.167189 -1.348809
2008-12-09 08:40:37 51°13.622 2°56.039 -999 0.030991 0.170625 -1.313985
2008-12-09 08:40:42 51°13.622 2°56.036 -999 0.030888 0.170057 -1.348809
2008-12-09 08:40:47 51°13.623 2°56.033 -999 0.030888 0.170057 -1.348809
2008-12-09 08:40:52 51°13.623 2°56.03 -999 0.030579 0.168343 -1.348809
2008-12-09 08:40:57 51°13.623 2°56.025 -999 0.029962 0.164915 -1.348809
2008-12-09 08:41:02 51°13.624 2°56.021 -999 0.030476 0.167772 -1.348809
2008-12-09 08:41:07 51°13.624 2°56.016 -999 0.030168 0.166062 -1.348809
2008-12-09 08:41:12 51°13.625 2°56.011 -999 0.030065 0.165494 -1.348809
2008-12-09 08:41:17 51°13.626 2°56.006 -999 0.030065 0.165494 -1.348809
2008-12-09 08:41:22 51°13.627 2°56 -999 0.029962 0.164923 -1.348809
2008-12-09 08:41:27 51°13.629 2°55.994 -999 0.029756 0.163788 -1.348809
2008-12-09 08:41:32 51°13.63 2°55.987 -999 0.029036 0.159798 -1.348809
2008-12-09 08:41:37 51°13.632 2°55.98 -999 0.029036 0.159801 -1.348809
2008-12-09 08:41:42 51°13.634 2°55.973 -999 0.029344 0.161516 -1.348809
2008-12-09 08:41:47 51°13.636 2°55.966 -999 0.029344 0.161516 -1.348809
2008-12-09 08:41:52 51°13.638 2°55.959 -999 0.030271 0.166664 -1.348809
2008-12-09 08:41:57 51°13.641 2°55.952 -999 0.030065 0.165531 -1.348809
2008-12-09 08:42:02 51°13.644 2°55.945 -999 0.030373 0.167253 -1.348809
2008-12-09 08:42:07 51°13.647 2°55.938 -999 0.029756 0.163831 -1.348809
2008-12-09 08:42:12 51°13.65 2°55.931 -999 0.02955 0.162693 -1.348809
2008-12-09 08:42:17 51°13.653 2°55.924 -999 0.02955 0.162693 -1.348809
2008-12-09 08:42:22 51°13.657 2°55.917 -999 0.029653 0.163266 -1.348809
2008-12-09 08:42:27 51°13.661 2°55.91 -999 0.029859 0.164413 -1.348809
2008-12-09 08:42:32 51°13.664 2°55.903 -999 0.029653 0.163274 -1.348809
2008-12-09 08:42:37 51°13.668 2°55.896 -999 0.029653 0.163277 -1.348809
2008-12-09 08:42:42 51°13.672 2°55.889 -999 0.029756 0.16385 -1.348809
2008-12-09 08:42:47 51°13.675 2°55.881 -999 0.029756 0.16385 -1.348809
2008-12-09 08:42:52 51°13.679 2°55.874 -999 0.029859 0.164427 -1.348809
2008-12-09 08:42:57 51°13.683 2°55.867 -999 0.029653 0.163291 -1.348809
2008-12-09 08:43:02 51°13.687 2°55.86 -999 0.029756 0.163865 -1.348809
2008-12-09 08:43:07 51°13.691 2°55.852 -999 0.02955 0.162729 -1.348809
2008-12-09 08:43:12 51°13.695 2°55.845 -999 0.029962 0.165015 -1.348809
2008-12-09 08:43:17 51°13.699 2°55.838 -999 0.029962 0.165015 -1.348809
2008-12-09 08:43:22 51°13.703 2°55.83 -999 0.029859 0.16445 -1.348809
2008-12-09 08:43:27 51°13.707 2°55.823 -999 0.029962 0.16502 -1.348809
2008-12-09 08:43:32 51°13.71 2°55.816 -999 0.030168 0.166168 -1.348809
2008-12-09 08:43:37 51°13.714 2°55.809 -999 0.030168 0.166171 -1.348809
2008-12-09 08:43:42 51°13.718 2°55.801 -999 0.029756 0.163893 -1.348809
2008-12-09 08:43:47 51°13.722 2°55.794 -999 0.029756 0.163893 -1.348809
2008-12-09 08:43:52 51°13.726 2°55.786 -999 0.029139 0.16047 -1.348809
2008-12-09 08:43:57 51°13.73 2°55.779 -999 0.028933 0.159333 -1.348809
2008-12-09 08:44:02 51°13.734 2°55.771 -999 0.029036 0.159906 -1.348809
2008-12-09 08:44:07 51°13.738 2°55.763 -999 0.028933 0.159336 -1.348809
2008-12-09 08:44:12 51°13.742 2°55.756 -999 0.028933 0.159341 -1.348809
2008-12-09 08:44:17 51°13.746 2°55.748 -999 0.028933 0.159341 -1.348809
2008-12-09 08:44:22 51°13.751 2°55.741 -999 0.029344 0.16163 -1.348809
2008-12-09 08:44:27 51°13.755 2°55.733 -999 0.029139 0.160492 -1.348809
2008-12-09 08:44:32 51°13.759 2°55.726 -999 0.029859 0.164492 -1.348809
2008-12-09 08:44:37 51°13.764 2°55.719 -999 0.02955 0.162783 -1.348809
2008-12-09 08:44:42 51°13.768 2°55.712 -999 0.029242 0.161068 -1.348809
2008-12-09 08:44:47 51°13.773 2°55.705 -999 0.029242 0.161068 -1.348809
2008-12-09 08:44:52 51°13.777 2°55.698 -999 0.029447 0.162209 -1.348809
2008-12-09 08:44:57 51°13.782 2°55.691 -999 0.02955 0.162783 -1.348809
2008-12-09 08:45:02 51°13.787 2°55.685 -999 0.02955 0.162788 -1.348809
2008-12-09 08:45:07 51°13.792 2°55.679 -999 0.029756 0.163935 -1.348809
2008-12-09 08:45:12 51°13.797 2°55.673 -999 0.029962 0.165083 -1.348809
2008-12-09 08:45:17 51°13.802 2°55.667 -999 0.029962 0.165083 -1.348809
2008-12-09 08:45:22 51°13.807 2°55.662 -999 0.02955 0.162811 -1.348809
2008-12-09 08:45:27 51°13.812 2°55.656 -999 0.029036 0.159958 -1.348809
2008-12-09 08:45:32 51°13.818 2°55.651 -999 0.029859 0.164529 -1.348809
2008-12-09 08:45:37 51°13.823 2°55.646 -999 0.029447 0.162246 -1.348809
2008-12-09 08:45:42 51°13.828 2°55.641 -999 0.029447 0.162246 -1.348809
2008-12-09 08:45:47 51°13.833 2°55.637 -999 0.029447 0.162246 -1.348809
2008-12-09 08:45:52 51°13.839 2°55.634 -999 0.029344 0.161675 -1.348809
2008-12-09 08:45:57 51°13.844 2°55.63 -999 0.029036 0.159966 -1.348809
2008-12-09 08:46:02 51°13.849 2°55.627 -999 0.028727 0.158259 -1.348809
2008-12-09 08:46:07 51°13.855 2°55.625 -999 0.028521 0.157116 -1.348809
2008-12-09 08:46:12 51°13.86 2°55.623 -999 0.028624 0.157691 -1.348809
2008-12-09 08:46:17 51°13.866 2°55.621 -999 0.028624 0.157691 -1.348809
2008-12-09 08:46:22 51°13.871 2°55.62 -999 0.028315 0.155982 -1.348809
2008-12-09 08:46:27 51°13.876 2°55.62 -999 0.028315 0.155985 -1.348809
2008-12-09 08:46:32 51°13.882 2°55.619 -999 0.028418 0.15656 -1.348809
2008-12-09 08:46:37 51°13.887 2°55.62 -999 0.028418 0.156565 -1.348809
2008-12-09 08:46:42 51°13.893 2°55.621 -999 0.027801 0.153146 -1.348809
2008-12-09 08:46:47 51°13.898 2°55.623 -999 0.027801 0.153146 -1.348809
2008-12-09 08:46:52 51°13.903 2°55.625 -999 0.028212 0.155434 -1.348809
2008-12-09 08:46:57 51°13.908 2°55.628 -999 0.028007 0.15429 -1.348809
2008-12-09 08:47:02 51°13.913 2°55.631 -999 0.029344 0.161708 -1.348809
2008-12-09 08:47:07 51°13.917 2°55.634 -999 0.028727 0.158294 -1.348809
2008-12-09 08:47:12 51°13.921 2°55.638 -999 0.029036 0.160013 -1.348809
2008-12-09 08:47:17 51°13.925 2°55.641 -999 0.029036 0.160013 -1.348809
2008-12-09 08:47:22 51°13.928 2°55.645 -999 0.028521 0.157176 -1.348809
2008-12-09 08:47:27 51°13.931 2°55.649 -999 0.028521 0.157186 -1.348809
2008-12-09 08:47:32 51°13.934 2°55.653 -999 0.028418 0.156619 -1.348809
2008-12-09 08:47:37 51°13.937 2°55.656 -999 0.029036 0.160046 -1.313985
2008-12-09 08:47:42 51°13.939 2°55.659 -999 0.029036 0.160046 -1.348809
2008-12-09 08:47:47 51°13.94 2°55.661 -999 0.029036 0.160046 -1.348809
2008-12-09 08:47:52 51°13.94 2°55.662 -999 0.029139 0.160617 -1.348809
2008-12-09 08:47:57 51°13.94 2°55.662 -999 0.029036 0.160049 -1.348809
2008-12-09 08:48:02 51°13.939 2°55.66 -999 0.025537 0.140675 -1.348809
2008-12-09 08:48:07 51°13.938 2°55.657 -999 0.024508 0.134967 -1.348809
2008-12-09 08:48:12 51°13.936 2°55.652 -999 0.025228 0.13892 -1.348809
2008-12-09 08:48:17 51°13.935 2°55.646 -999 0.025228 0.13892 -1.348809
2008-12-09 08:48:22 51°13.935 2°55.638 -999 0.024096 0.132692 -1.348809
2008-12-09 08:48:27 51°13.935 2°55.631 -999 0.023376 0.128708 -1.348809
2008-12-09 08:48:32 51°13.936 2°55.622 -999 0.022861 0.125867 -1.348809
2008-12-09 08:48:37 51°13.938 2°55.613 -999 0.024199 0.133214 -1.348809
2008-12-09 08:48:42 51°13.941 2°55.605 -999 0.025846 0.142332 -1.348809
2008-12-09 08:48:47 51°13.945 2°55.596 -999 0.025846 0.142332 -1.348809
2008-12-09 08:48:52 51°13.949 2°55.587 -999 0.028418 0.156635 -1.348809
2008-12-09 08:48:57 51°13.955 2°55.578 -999 0.030065 0.16585 -1.348809
2008-12-09 08:49:02 51°13.961 2°55.569 -999 0.030991 0.171031 -1.348809
2008-12-09 08:49:07 51°13.967 2°55.561 -999 0.03202 0.176696 -1.348809
2008-12-09 08:49:12 51°13.974 2°55.553 -999 0.032637 0.180247 -1.348809
2008-12-09 08:49:17 51°13.982 2°55.545 -999 0.032637 0.180247 -1.348809
2008-12-09 08:49:22 51°13.99 2°55.536 -999 0.032432 0.179242 -1.348809
2008-12-09 08:49:27 51°13.998 2°55.528 -999 0.032432 0.179295 -1.348809
2008-12-09 08:49:32 51°14.007 2°55.519 -999 0.032329 0.178698 -1.348809
2008-12-09 08:49:37 51°14.016 2°55.511 -999 0.032432 0.179258 -1.348809
2008-12-09 08:49:42 51°14.025 2°55.502 -999 0.031403 0.173479 -1.348809
2008-12-09 08:49:47 51°14.034 2°55.493 -999 0.031403 0.173479 -1.348809
2008-12-09 08:49:52 51°14.042 2°55.484 -999 0.030476 0.16827 -1.313985
2008-12-09 08:49:57 51°14.051 2°55.475 -999 0.031403 0.173418 -1.348809
2008-12-09 08:50:02 51°14.061 2°55.466 -999 0.030579 0.168819 -1.348809
2008-12-09 08:50:07 51°14.07 2°55.458 -999 0.031197 0.172256 -1.348809
2008-12-09 08:50:12 51°14.08 2°55.449 -999 0.03202 0.176856 -1.348809
2008-12-09 08:50:17 51°14.09 2°55.441 -999 0.03202 0.176856 -1.348809
2008-12-09 08:50:22 51°14.099 2°55.432 -999 0.030991 0.171133 -1.348809
2008-12-09 08:50:27 51°14.109 2°55.424 -999 0.031094 0.171706 -1.348809
2008-12-09 08:50:32 51°14.119 2°55.416 -999 0.030579 0.168831 -1.348809
2008-12-09 08:50:37 51°14.129 2°55.407 -999 0.031917 0.176303 -1.348809
2008-12-09 08:50:42 51°14.139 2°55.398 -999 0.031814 0.175726 -1.348809
2008-12-09 08:50:47 51°14.149 2°55.389 -999 0.031814 0.175726 -1.348809
2008-12-09 08:50:52 51°14.16 2°55.38 -999 0.030785 0.169992 -1.348809
2008-12-09 08:50:57 51°14.17 2°55.371 -999 0.032123 0.177455 -1.348809
2008-12-09 08:51:02 51°14.18 2°55.361 -999 0.031403 0.173445 -1.348809
2008-12-09 08:51:07 51°14.189 2°55.35 -999 0.031814 0.175766 -1.348809
2008-12-09 08:51:12 51°14.199 2°55.34 -999 0.031505 0.174065 -1.348809
2008-12-09 08:51:17 51°14.208 2°55.328 -999 0.031505 0.174065 -1.348809
2008-12-09 08:51:22 51°14.217 2°55.316 -999 0.031505 0.174095 -1.313985
2008-12-09 08:51:27 51°14.226 2°55.304 -999 0.030991 0.171213 -1.313985
2008-12-09 08:51:32 51°14.235 2°55.291 -999 0.031094 0.17179 -1.348809
2008-12-09 08:51:37 51°14.243 2°55.278 -999 0.030374 0.167773 -1.313985
2008-12-09 08:51:42 51°14.251 2°55.264 -999 0.031094 0.171802 -1.348809
2008-12-09 08:51:47 51°14.259 2°55.25 -999 0.031094 0.171802 -1.348809
2008-12-09 08:51:52 51°14.267 2°55.236 -999 0.029344 0.162047 -1.348809
2008-12-09 08:51:57 51°14.274 2°55.221 -999 0.030476 0.168364 -1.348809
2008-12-09 08:52:02 51°14.282 2°55.206 -999 0.029859 0.164917 -1.313985
2008-12-09 08:52:07 51°14.289 2°55.191 -999 0.029139 0.160909 -1.348809
2008-12-09 08:52:12 51°14.297 2°55.176 -999 0.02955 0.163194 -1.348809
2008-12-09 08:52:17 51°14.304 2°55.161 -999 0.02955 0.163194 -1.348809
2008-12-09 08:52:22 51°14.311 2°55.146 -999 0.029344 0.162044 -1.348809
2008-12-09 08:52:27 51°14.319 2°55.13 -999 0.02883 0.159166 -1.348809
2008-12-09 08:52:32 51°14.325 2°55.115 -999 0.029036 0.160295 -1.348809
2008-12-09 08:52:37 51°14.332 2°55.098 -999 0.028933 0.15974 -1.313985
2008-12-09 08:52:42 51°14.339 2°55.082 -999 0.028727 0.158633 -1.348809
2008-12-09 08:52:47 51°14.346 2°55.066 -999 0.028727 0.158633 -1.348809
2008-12-09 08:52:52 51°14.352 2°55.049 -999 0.027698 0.152926 -1.348809
2008-12-09 08:52:57 51°14.359 2°55.032 -999 0.027904 0.154038 -1.348809
2008-12-09 08:53:02 51°14.366 2°55.016 -999 0.028007 0.154584 -1.348809
2008-12-09 08:53:07 51°14.374 2°55 -999 0.027801 0.153436 -1.348809
2008-12-09 08:53:12 51°14.382 2°54.985 -999 0.027801 0.153444 -1.348809
2008-12-09 08:53:17 51°14.391 2°54.97 -999 0.027801 0.153444 -1.348809
2008-12-09 08:53:22 51°14.399 2°54.956 -999 0.027698 0.152918 -1.348809
2008-12-09 08:53:27 51°14.408 2°54.942 -999 0.02883 0.15929 -1.348809
2008-12-09 08:53:32 51°14.416 2°54.928 -999 0.029653 0.163877 -1.348809
2008-12-09 08:53:37 51°14.424 2°54.914 -999 0.029139 0.161034 -1.313985
2008-12-09 08:53:42 51°14.431 2°54.898 -999 0.028007 0.15464 -1.313985
2008-12-09 08:53:47 51°14.438 2°54.883 -999 0.028007 0.15464 -1.313985
2008-12-09 08:53:52 51°14.444 2°54.867 -999 0.027492 0.151731 -1.313985
2008-12-09 08:53:57 51°14.449 2°54.851 -999 0.027081 0.149475 -1.348809
2008-12-09 08:54:02 51°14.454 2°54.835 -999 0.027286 0.150705 -1.348809
2008-12-09 08:54:07 51°14.458 2°54.818 -999 0.027286 0.150769 -1.348809
2008-12-09 08:54:12 51°14.462 2°54.801 -999 0.026772 0.148032 -1.348809
2008-12-09 08:54:17 51°14.465 2°54.783 -999 0.026772 0.148032 -1.348809
2008-12-09 08:54:22 51°14.467 2°54.766 -999 0.027595 0.15285 -1.348809
2008-12-09 08:54:27 51°14.468 2°54.749 -999 0.027698 0.153396 -1.348809
2008-12-09 08:54:32 51°14.469 2°54.731 -999 0.028212 0.156482 -1.313985
2008-12-09 08:54:37 51°14.468 2°54.714 -999 0.028624 0.158739 -1.313985
2008-12-09 08:54:42 51°14.467 2°54.697 -999 0.026772 0.14854 -1.348809
2008-12-09 08:54:47 51°14.465 2°54.68 -999 0.026772 0.14854 -1.348809
2008-12-09 08:54:52 51°14.462 2°54.664 -999 0.028727 0.159424 -1.313985
2008-12-09 08:54:57 51°14.458 2°54.648 -999 0.02883 0.160178 -1.348809
2008-12-09 08:55:02 51°14.453 2°54.632 -999 0.029859 0.166101 -1.348809
2008-12-09 08:55:07 51°14.448 2°54.616 -999 0.02564 0.14249 -1.313985
2008-12-09 08:55:12 51°14.441 2°54.601 -999 0.02955 0.164189 -1.348809
2008-12-09 08:55:17 51°14.436 2°54.585 -999 0.02955 0.164189 -1.348809
2008-12-09 08:55:22 51°14.43 2°54.568 -999 0.028933 0.160964 -1.313985
2008-12-09 08:55:27 51°14.424 2°54.552 -999 0.028727 0.159761 -1.348809
2008-12-09 08:55:32 51°14.418 2°54.535 -999 0.030271 0.16855 -1.348809
2008-12-09 08:55:37 51°14.412 2°54.519 -999 0.028624 0.159433 -1.348809
2008-12-09 08:55:42 51°14.406 2°54.503 -999 0.029756 0.165958 -1.313985
2008-12-09 08:55:47 51°14.401 2°54.487 -999 0.029756 0.165958 -1.313985
2008-12-09 08:55:52 51°14.397 2°54.473 -999 0.030065 0.167509 -1.313985
2008-12-09 08:55:57 51°14.392 2°54.458 -999 0.030785 0.171702 -1.348809
2008-12-09 08:56:02 51°14.388 2°54.444 -999 0.032637 0.182262 -1.348809
2008-12-09 08:56:07 51°14.383 2°54.429 -999 0.031403 0.175477 -1.348809
2008-12-09 08:56:12 51°14.379 2°54.416 -999 0.0313 0.174893 -1.313985
2008-12-09 08:56:17 51°14.375 2°54.403 -999 0.0313 0.174893 -1.313985
2008-12-09 08:56:22 51°14.37 2°54.39 -999 0.035931 0.20103 -1.313985
2008-12-09 08:56:27 51°14.366 2°54.377 -999 0.035828 0.200434 -1.348809
2008-12-09 08:56:32 51°14.362 2°54.365 -999 0.033769 0.188886 -1.348809
2008-12-09 08:56:37 51°14.358 2°54.352 -999 0.035107 0.196553 -1.348809
2008-12-09 08:56:42 51°14.353 2°54.339 -999 0.034696 0.194242 -1.348809
2008-12-09 08:56:47 51°14.349 2°54.327 -999 0.034696 0.194242 -1.348809
2008-12-09 08:56:52 51°14.345 2°54.314 -999 0.033152 0.185409 -1.348809
2008-12-09 08:56:57 51°14.342 2°54.302 -999 0.032535 0.181965 -1.348809
2008-12-09 08:57:02 51°14.337 2°54.289 -999 0.033769 0.189018 -1.348809
2008-12-09 08:57:07 51°14.333 2°54.277 -999 0.033564 0.187978 -1.348809
2008-12-09 08:57:12 51°14.33 2°54.264 -999 0.03202 0.179155 -1.348809
2008-12-09 08:57:17 51°14.326 2°54.252 -999 0.03202 0.179155 -1.348809
2008-12-09 08:57:22 51°14.322 2°54.239 -999 0.032432 0.181586 -1.348809
2008-12-09 08:57:27 51°14.318 2°54.227 -999 0.032123 0.179878 -1.313985
2008-12-09 08:57:32 51°14.313 2°54.214 -999 0.032226 0.180426 -1.348809
2008-12-09 08:57:37 51°14.31 2°54.202 -999 0.033152 0.185668 -1.348809
2008-12-09 08:57:42 51°14.306 2°54.189 -999 0.032432 0.181576 -1.348809
2008-12-09 08:57:47 51°14.301 2°54.177 -999 0.032432 0.181576 -1.348809
2008-12-09 08:57:52 51°14.297 2°54.164 -999 0.031403 0.175727 -1.348809
2008-12-09 08:57:57 51°14.293 2°54.152 -999 0.031094 0.174008 -1.313985
2008-12-09 08:58:02 51°14.289 2°54.14 -999 0.03274 0.183323 -1.313985
2008-12-09 08:58:07 51°14.285 2°54.128 -999 0.031814 0.178063 -1.313985
2008-12-09 08:58:12 51°14.281 2°54.116 -999 0.031197 0.174597 -1.348809
2008-12-09 08:58:17 51°14.277 2°54.104 -999 0.031197 0.174597 -1.348809
2008-12-09 08:58:22 51°14.273 2°54.091 -999 0.030785 0.172312 -1.348809
2008-12-09 08:58:27 51°14.269 2°54.079 -999 0.030991 0.173531 -1.348809
2008-12-09 08:58:32 51°14.265 2°54.067 -999 0.030682 0.171763 -1.348809
2008-12-09 08:58:37 51°14.261 2°54.055 -999 0.030888 0.17294 -1.348809
2008-12-09 08:58:42 51°14.257 2°54.043 -999 0.029756 0.166518 -1.313985
2008-12-09 08:58:47 51°14.252 2°54.031 -999 0.029756 0.166518 -1.313985
2008-12-09 08:58:52 51°14.248 2°54.019 -999 0.028727 0.160686 -1.348809
2008-12-09 08:58:57 51°14.244 2°54.008 -999 0.032535 0.182234 -1.313985
2008-12-09 08:59:02 51°14.239 2°53.997 -999 0.031608 0.177039 -1.348809
2008-12-09 08:59:07 51°14.235 2°53.986 -999 0.02955 0.165418 -1.313985
2008-12-09 08:59:12 51°14.231 2°53.974 -999 0.031197 0.174755 -1.313985
2008-12-09 08:59:17 51°14.227 2°53.963 -999 0.031197 0.174755 -1.313985
2008-12-09 08:59:22 51°14.222 2°53.952 -999 0.031711 0.177686 -1.348809
2008-12-09 08:59:27 51°14.218 2°53.941 -999 0.033564 0.18823 -1.313985
2008-12-09 08:59:32 51°14.214 2°53.929 -999 0.031814 0.178326 -1.313985
2008-12-09 08:59:37 51°14.211 2°53.917 -999 0.033975 0.190602 -1.348809
2008-12-09 08:59:42 51°14.208 2°53.905 -999 0.031506 0.176614 -1.313985
2008-12-09 08:59:47 51°14.204 2°53.894 -999 0.031506 0.176614 -1.313985
2008-12-09 08:59:52 51°14.2 2°53.882 -999 0.029139 0.163228 -1.313985
2008-12-09 08:59:57 51°14.197 2°53.869 -999 0.031506 0.176611 -1.313985
2008-12-09 09:00:02 51°14.193 2°53.857 -999 0.031506 0.176608 -1.348809
2008-12-09 09:00:07 51°14.19 2°53.846 -999 0.033975 0.190671 -1.313985
2008-12-09 09:00:12 51°14.185 2°53.834 -999 0.029345 0.164419 -1.348809
2008-12-09 09:00:17 51°14.182 2°53.822 -999 0.029345 0.164419 -1.348809
2008-12-09 09:00:22 51°14.178 2°53.81 -999 0.031917 0.179025 -1.348809
2008-12-09 09:00:27 51°14.174 2°53.798 -999 0.030168 0.169122 -1.313985
2008-12-09 09:00:32 51°14.17 2°53.786 -999 0.031711 0.177902 -1.313985
2008-12-09 09:00:37 51°14.166 2°53.774 -999 0.029447 0.165109 -1.348809
2008-12-09 09:00:42 51°14.162 2°53.762 -999 0.028933 0.162221 -1.348809
2008-12-09 09:00:47 51°14.158 2°53.75 -999 0.028933 0.162221 -1.348809
2008-12-09 09:00:52 51°14.153 2°53.738 -999 0.029036 0.16282 -1.348809
2008-12-09 09:00:57 51°14.149 2°53.726 -999 0.030785 0.172701 -1.313985
2008-12-09 09:01:02 51°14.145 2°53.714 -999 0.031506 0.176797 -1.313985
2008-12-09 09:01:07 51°14.14 2°53.702 -999 0.029345 0.164527 -1.313985
2008-12-09 09:01:12 51°14.136 2°53.691 -999 0.030579 0.171483 -1.313985
2008-12-09 09:01:17 51°14.131 2°53.679 -999 0.030579 0.171483 -1.313985
2008-12-09 09:01:22 51°14.127 2°53.667 -999 0.030476 0.170946 -1.313985
2008-12-09 09:01:27 51°14.122 2°53.656 -999 0.029756 0.166882 -1.313985
2008-12-09 09:01:32 51°14.118 2°53.644 -999 0.028727 0.161075 -1.313985
2008-12-09 09:01:37 51°14.114 2°53.632 -999 0.029962 0.168065 -1.348809
2008-12-09 09:01:42 51°14.11 2°53.62 -999 0.027904 0.156419 -1.348809
2008-12-09 09:01:47 51°14.106 2°53.609 -999 0.027904 0.156419 -1.348809
2008-12-09 09:01:52 51°14.101 2°53.596 -999 0.028727 0.161101 -1.313985
2008-12-09 09:01:57 51°14.097 2°53.585 -999 0.027698 0.155253 -1.313985
2008-12-09 09:02:02 51°14.093 2°53.573 -999 0.029242 0.16396 -1.313985
2008-12-09 09:02:07 51°14.088 2°53.561 -999 0.027801 0.155867 -1.313985
2008-12-09 09:02:12 51°14.084 2°53.548 -999 0.028727 0.161121 -1.313985
2008-12-09 09:02:17 51°14.079 2°53.537 -999 0.028727 0.161121 -1.313985
2008-12-09 09:02:22 51°14.075 2°53.524 -999 0.028624 0.160516 -1.348809
2008-12-09 09:02:27 51°14.07 2°53.512 -999 0.030271 0.16981 -1.313985
2008-12-09 09:02:32 51°14.066 2°53.5 -999 0.02955 0.165756 -1.313985
2008-12-09 09:02:37 51°14.062 2°53.488 -999 0.028521 0.160003 -1.313985
2008-12-09 09:02:42 51°14.057 2°53.476 -999 0.029962 0.168151 -1.313985
2008-12-09 09:02:47 51°14.053 2°53.464 -999 0.029962 0.168151 -1.313985
2008-12-09 09:02:52 51°14.048 2°53.454 -999 0.030579 0.17163 -1.313985
2008-12-09 09:02:57 51°14.043 2°53.442 -999 0.032535 0.182728 -1.348809
2008-12-09 09:03:02 51°14.039 2°53.43 -999 0.030271 0.169898 -1.313985
2008-12-09 09:03:07 51°14.035 2°53.419 -999 0.029447 0.16527 -1.313985
2008-12-09 09:03:12 51°14.031 2°53.408 -999 0.030476 0.171141 -1.313985
2008-12-09 09:03:17 51°14.027 2°53.397 -999 0.030476 0.171141 -1.313985
2008-12-09 09:03:22 51°14.024 2°53.388 -999 0.028933 0.16239 -1.313985
2008-12-09 09:03:27 51°14.021 2°53.38 -999 0.030271 0.169983 -1.313985
2008-12-09 09:03:32 51°14.018 2°53.371 -999 0.028624 0.160664 -1.348809
2008-12-09 09:03:37 51°14.016 2°53.364 -999 0.02883 0.161828 -1.313985
2008-12-09 09:03:42 51°14.014 2°53.357 -999 0.029447 0.165338 -1.313985
2008-12-09 09:03:47 51°14.012 2°53.35 -999 0.029447 0.165338 -1.313985
2008-12-09 09:03:52 51°14.01 2°53.345 -999 0.027904 0.156585 -1.313985
2008-12-09 09:03:57 51°14.009 2°53.339 -999 0.028315 0.158927 -1.313985
2008-12-09 09:04:02 51°14.007 2°53.334 -999 0.02955 0.165927 -1.313985
2008-12-09 09:04:07 51°14.006 2°53.329 -999 0.02955 0.165956 -1.313985
2008-12-09 09:04:12 51°14.005 2°53.325 -999 0.030374 0.170615 -1.313985
2008-12-09 09:04:17 51°14.004 2°53.321 -999 0.030374 0.170615 -1.313985
2008-12-09 09:04:22 51°14.002 2°53.317 -999 0.030065 0.168858 -1.313985
2008-12-09 09:04:27 51°14.001 2°53.314 -999 0.029653 0.166536 -1.313985
2008-12-09 09:04:32 51°14 2°53.31 -999 0.026978 0.15141 -1.313985
2008-12-09 09:04:37 51°13.999 2°53.307 -999 0.029345 0.164773 -1.313985
2008-12-09 09:04:42 51°13.998 2°53.305 -999 0.02955 0.165944 -1.313985
2008-12-09 09:04:47 51°13.997 2°53.302 -999 0.02955 0.165944 -1.313985
2008-12-09 09:04:52 51°13.996 2°53.3 -999 0.027389 0.153727 -1.313985
2008-12-09 09:04:57 51°13.996 2°53.298 -999 0.026669 0.149651 -1.313985
2008-12-09 09:05:02 51°13.995 2°53.296 -999 0.028418 0.159551 -1.313985
2008-12-09 09:05:07 51°13.994 2°53.294 -999 0.027081 0.152031 -1.313985
2008-12-09 09:05:12 51°13.993 2°53.292 -999 0.026463 0.148525 -1.313985
2008-12-09 09:05:17 51°13.993 2°53.291 -999 0.026463 0.148525 -1.313985
2008-12-09 09:05:22 51°13.992 2°53.288 -999 0.027183 0.152587 -1.313985
2008-12-09 09:05:27 51°13.991 2°53.286 -999 0.027183 0.152598 -1.313985
2008-12-09 09:05:32 51°13.99 2°53.284 -999 0.028624 0.160747 -1.313985
2008-12-09 09:05:37 51°13.989 2°53.281 -999 0.026669 0.149706 -1.348809
2008-12-09 09:05:42 51°13.988 2°53.278 -999 0.027595 0.154932 -1.313985
2008-12-09 09:05:47 51°13.986 2°53.274 -999 0.027595 0.154932 -1.313985
2008-12-09 09:05:52 51°13.985 2°53.27 -999 0.02636 0.147982 -1.313985
2008-12-09 09:05:57 51°13.983 2°53.266 -999 0.026669 0.149738 -1.313985
2008-12-09 09:06:02 51°13.982 2°53.262 -999 0.028007 0.15733 -1.313985
2008-12-09 09:06:07 51°13.98 2°53.257 -999 0.026669 0.149791 -1.313985
2008-12-09 09:06:12 51°13.978 2°53.252 -999 0.028315 0.159113 -1.313985
2008-12-09 09:06:17 51°13.976 2°53.248 -999 0.028315 0.159113 -1.313985
2008-12-09 09:06:22 51°13.974 2°53.243 -999 0.026566 0.149255 -1.313985
2008-12-09 09:06:27 51°13.971 2°53.238 -999 0.026875 0.150981 -1.313985
2008-12-09 09:06:32 51°13.969 2°53.234 -999 0.024817 0.139399 -1.313985
2008-12-09 09:06:37 51°13.967 2°53.229 -999 0.027081 0.152178 -1.313985
2008-12-09 09:06:42 51°13.964 2°53.224 -999 0.025537 0.143447 -1.313985
2008-12-09 09:06:47 51°13.962 2°53.219 -999 0.025537 0.143447 -1.313985
2008-12-09 09:06:52 51°13.959 2°53.214 -999 0.027389 0.153906 -1.313985
2008-12-09 09:06:57 51°13.957 2°53.209 -999 0.025846 0.145219 -1.313985
2008-12-09 09:07:02 51°13.954 2°53.204 -999 0.02564 0.144077 -1.313985
2008-12-09 09:07:07 51°13.952 2°53.199 -999 0.025949 0.145837 -1.313985
2008-12-09 09:07:12 51°13.95 2°53.195 -999 0.027183 0.152824 -1.313985
2008-12-09 09:07:17 51°13.947 2°53.192 -999 0.027183 0.152824 -1.313985
2008-12-09 09:07:22 51°13.945 2°53.189 -999 0.025434 0.142948 -1.313985
2008-12-09 09:07:27 51°13.943 2°53.185 -999 0.025537 0.14352 -1.313985
2008-12-09 09:07:32 51°13.941 2°53.182 -999 0.024714 0.138879 -1.348809
2008-12-09 09:07:37 51°13.939 2°53.179 -999 0.024096 0.135414 -1.313985
2008-12-09 09:07:42 51°13.937 2°53.175 -999 0.024817 0.139477 -1.313985
2008-12-09 09:07:47 51°13.935 2°53.172 -999 0.024817 0.139477 -1.313985
2008-12-09 09:07:52 51°13.933 2°53.168 -999 0.02636 0.14819 -1.313985
2008-12-09 09:07:57 51°13.931 2°53.164 -999 0.024405 0.137184 -1.313985
2008-12-09 09:08:02 51°13.929 2°53.16 -999 0.024508 0.13776 -1.313985
2008-12-09 09:08:07 51°13.927 2°53.156 -999 0.025331 0.14242 -1.313985
2008-12-09 09:08:12 51°13.925 2°53.153 -999 0.025125 0.141266 -1.313985
2008-12-09 09:08:17 51°13.923 2°53.148 -999 0.025125 0.141266 -1.313985
2008-12-09 09:08:22 51°13.921 2°53.144 -999 0.024817 0.139523 -1.313985
2008-12-09 09:08:27 51°13.918 2°53.139 -999 0.027904 0.156954 -1.313985
2008-12-09 09:08:32 51°13.916 2°53.135 -999 0.026257 0.147653 -1.313985
2008-12-09 09:08:37 51°13.914 2°53.131 -999 0.024508 0.137784 -1.313985
2008-12-09 09:08:42 51°13.911 2°53.127 -999 0.023993 0.134889 -1.313985
2008-12-09 09:08:47 51°13.909 2°53.122 -999 0.023993 0.134889 -1.313985
2008-12-09 09:08:52 51°13.907 2°53.117 -999 0.02492 0.140124 -1.313985
2008-12-09 09:08:57 51°13.904 2°53.112 -999 0.02636 0.14826 -1.313985
2008-12-09 09:09:02 51°13.902 2°53.106 -999 0.026154 0.147098 -1.348809
2008-12-09 09:09:07 51°13.9 2°53.101 -999 0.023993 0.134946 -1.313985
2008-12-09 09:09:12 51°13.897 2°53.096 -999 0.024714 0.138971 -1.313985
2008-12-09 09:09:17 51°13.895 2°53.091 -999 0.024714 0.138971 -1.313985
2008-12-09 09:09:22 51°13.893 2°53.086 -999 0.024405 0.137234 -1.313985
2008-12-09 09:09:27 51°13.89 2°53.081 -999 0.025125 0.141286 -1.313985
2008-12-09 09:09:32 51°13.888 2°53.076 -999 0.024405 0.137251 -1.313985
2008-12-09 09:09:37 51°13.886 2°53.071 -999 0.025434 0.143068 -1.313985
2008-12-09 09:09:42 51°13.884 2°53.065 -999 0.023788 0.133792 -1.313985
2008-12-09 09:09:47 51°13.882 2°53.06 -999 0.023788 0.133792 -1.313985
2008-12-09 09:09:52 51°13.879 2°53.054 -999 0.024611 0.138428 -1.313985
2008-12-09 09:09:57 51°13.878 2°53.049 -999 0.024302 0.136693 -1.313985
2008-12-09 09:10:02 51°13.875 2°53.044 -999 0.026669 0.150052 -1.313985
2008-12-09 09:10:07 51°13.874 2°53.039 -999 0.025331 0.14251 -1.313985
2008-12-09 09:10:12 51°13.871 2°53.036 -999 0.026772 0.15066 -1.313985
2008-12-09 09:10:17 51°13.869 2°53.033 -999 0.026772 0.15066 -1.313985
2008-12-09 09:10:22 51°13.867 2°53.03 -999 0.025228 0.141947 -1.313985
2008-12-09 09:10:27 51°13.865 2°53.028 -999 0.028727 0.161771 -1.313985
2008-12-09 09:10:32 51°13.864 2°53.026 -999 0.026978 0.151859 -1.313985
2008-12-09 09:10:37 51°13.863 2°53.023 -999 0.027595 0.15536 -1.313985
2008-12-09 09:10:42 51°13.862 2°53.021 -999 0.026257 0.147796 -1.313985
2008-12-09 09:10:47 51°13.86 2°53.018 -999 0.026257 0.147796 -1.313985
2008-12-09 09:10:52 51°13.859 2°53.015 -999 0.026772 0.150713 -1.313985
2008-12-09 09:10:57 51°13.858 2°53.012 -999 0.028727 0.16178 -1.313985
2008-12-09 09:11:02 51°13.857 2°53.009 -999 0.026772 0.150697 -1.313985
2008-12-09 09:11:07 51°13.856 2°53.006 -999 0.028315 0.159432 -1.313985
2008-12-09 09:11:12 51°13.854 2°53.003 -999 0.026669 0.150099 -1.313985
2008-12-09 09:11:17 51°13.854 2°53 -999 0.026669 0.150099 -1.313985
2008-12-09 09:11:22 51°13.852 2°52.997 -999 0.025022 0.140827 -1.313985
2008-12-09 09:11:27 51°13.851 2°52.993 -999 0.026052 0.146644 -1.313985
2008-12-09 09:11:32 51°13.85 2°52.99 -999 0.025228 0.14198 -1.313985
2008-12-09 09:11:37 51°13.849 2°52.986 -999 0.024508 0.137957 -1.313985
2008-12-09 09:11:42 51°13.848 2°52.983 -999 0.024611 0.138544 -1.313985
2008-12-09 09:11:47 51°13.846 2°52.979 -999 0.024611 0.138544 -1.313985
2008-12-09 09:11:52 51°13.845 2°52.976 -999 0.026566 0.149549 -1.313985
2008-12-09 09:11:57 51°13.844 2°52.974 -999 0.025434 0.143183 -1.313985
2008-12-09 09:12:02 51°13.843 2°52.971 -999 0.027286 0.153672 -1.313985
2008-12-09 09:12:07 51°13.842 2°52.969 -999 0.026566 0.149618 -1.313985
2008-12-09 09:12:12 51°13.84 2°52.966 -999 0.025537 0.143812 -1.313985
2008-12-09 09:12:17 51°13.839 2°52.963 -999 0.025537 0.143812 -1.313985
2008-12-09 09:12:22 51°13.838 2°52.959 -999 0.025331 0.142648 -1.313985
2008-12-09 09:12:27 51°13.836 2°52.956 -999 0.025434 0.143233 -1.313985
2008-12-09 09:12:32 51°13.835 2°52.953 -999 0.024405 0.137435 -1.313985
2008-12-09 09:12:37 51°13.834 2°52.949 -999 0.02636 0.148475 -1.313985
2008-12-09 09:12:42 51°13.832 2°52.945 -999 0.026669 0.150232 -1.313985
2008-12-09 09:12:47 51°13.831 2°52.941 -999 0.026669 0.150232 -1.313985
2008-12-09 09:12:52 51°13.829 2°52.937 -999 0.025434 0.143269 -1.313985
2008-12-09 09:12:57 51°13.828 2°52.932 -999 0.025537 0.14386 -1.313985
2008-12-09 09:13:02 51°13.826 2°52.929 -999 0.026154 0.147371 -1.313985
2008-12-09 09:13:07 51°13.825 2°52.925 -999 0.026978 0.152023 -1.313985
2008-12-09 09:13:12 51°13.823 2°52.92 -999 0.02492 0.140382 -1.313985
2008-12-09 09:13:17 51°13.821 2°52.916 -999 0.02492 0.140382 -1.313985
2008-12-09 09:13:22 51°13.82 2°52.911 -999 0.025846 0.145617 -1.313985
2008-12-09 09:13:27 51°13.818 2°52.907 -999 0.025537 0.143878 -1.313985
2008-12-09 09:13:32 51°13.817 2°52.902 -999 0.02564 0.144472 -1.313985
2008-12-09 09:13:37 51°13.815 2°52.897 -999 0.026875 0.151475 -1.313985
2008-12-09 09:13:42 51°13.813 2°52.892 -999 0.025537 0.143888 -1.313985
2008-12-09 09:13:47 51°13.812 2°52.888 -999 0.025537 0.143888 -1.313985
2008-12-09 09:13:52 51°13.81 2°52.883 -999 0.025846 0.14563 -1.313985
2008-12-09 09:13:57 51°13.808 2°52.878 -999 0.027904 0.157308 -1.313985
2008-12-09 09:14:02 51°13.806 2°52.873 -999 0.028418 0.160241 -1.313985
2008-12-09 09:14:07 51°13.804 2°52.868 -999 0.028213 0.159072 -1.313985
2008-12-09 09:14:12 51°13.802 2°52.863 -999 0.026154 0.147407 -1.313985
2008-12-09 09:14:17 51°13.801 2°52.858 -999 0.026154 0.147407 -1.313985
2008-12-09 09:14:22 51°13.799 2°52.854 -999 0.026669 0.150317 -1.313985
2008-12-09 09:14:27 51°13.797 2°52.849 -999 0.026257 0.147989 -1.313985
2008-12-09 09:14:32 51°13.795 2°52.845 -999 0.026463 0.149154 -1.313985
2008-12-09 09:14:37 51°13.794 2°52.841 -999 0.026052 0.146812 -1.313985
2008-12-09 09:14:42 51°13.792 2°52.837 -999 0.025949 0.14624 -1.313985
2008-12-09 09:14:47 51°13.79 2°52.833 -999 0.025949 0.14624 -1.313985
2008-12-09 09:14:52 51°13.789 2°52.829 -999 0.024611 0.138694 -1.313985
2008-12-09 09:14:57 51°13.787 2°52.825 -999 0.024817 0.139855 -1.313985
2008-12-09 09:15:02 51°13.785 2°52.821 -999 0.023582 0.1329 -1.313985
2008-12-09 09:15:07 51°13.784 2°52.816 -999 0.024096 0.135812 -1.313985
2008-12-09 09:15:12 51°13.782 2°52.812 -999 0.026154 0.147464 -1.313985
2008-12-09 09:15:17 51°13.781 2°52.809 -999 0.026154 0.147464 -1.313985
2008-12-09 09:15:22 51°13.779 2°52.805 -999 0.025331 0.14281 -1.313985
2008-12-09 09:15:27 51°13.778 2°52.801 -999 0.024199 0.136426 -1.313985
2008-12-09 09:15:32 51°13.777 2°52.797 -999 0.025743 0.145145 -1.313985
2008-12-09 09:15:37 51°13.776 2°52.793 -999 0.026154 0.147495 -1.313985
2008-12-09 09:15:42 51°13.774 2°52.79 -999 0.024714 0.139362 -1.313985
2008-12-09 09:15:47 51°13.773 2°52.786 -999 0.024714 0.139362 -1.313985
2008-12-09 09:15:52 51°13.772 2°52.782 -999 0.024714 0.139353 -1.313985
2008-12-09 09:15:57 51°13.771 2°52.778 -999 0.024405 0.137615 -1.313985
2008-12-09 09:16:02 51°13.769 2°52.774 -999 0.02636 0.148664 -1.313985
2008-12-09 09:16:07 51°13.768 2°52.77 -999 0.024714 0.139365 -1.313985
2008-12-09 09:16:12 51°13.767 2°52.766 -999 0.026052 0.146939 -1.313985
2008-12-09 09:16:17 51°13.765 2°52.762 -999 0.026052 0.146939 -1.313985
2008-12-09 09:16:22 51°13.764 2°52.758 -999 0.024508 0.13821 -1.313985
2008-12-09 09:16:27 51°13.762 2°52.755 -999 0.024199 0.136485 -1.313985
2008-12-09 09:16:32 51°13.761 2°52.751 -999 0.024817 0.139963 -1.313985
2008-12-09 09:16:37 51°13.759 2°52.747 -999 0.026875 0.151614 -1.313985
2008-12-09 09:16:42 51°13.758 2°52.744 -999 0.025949 0.146392 -1.313985
2008-12-09 09:16:47 51°13.756 2°52.74 -999 0.025949 0.146392 -1.313985
2008-12-09 09:16:52 51°13.755 2°52.736 -999 0.024508 0.138254 -1.313985
2008-12-09 09:16:57 51°13.753 2°52.733 -999 0.023891 0.134782 -1.313985
2008-12-09 09:17:02 51°13.752 2°52.729 -999 0.024714 0.139433 -1.313985
2008-12-09 09:17:07 51°13.75 2°52.725 -999 0.024405 0.137687 -1.313985
2008-12-09 09:17:12 51°13.749 2°52.721 -999 0.02492 0.140589 -1.313985
2008-12-09 09:17:17 51°13.747 2°52.718 -999 0.02492 0.140589 -1.313985
2008-12-09 09:17:22 51°13.745 2°52.714 -999 0.025743 0.145255 -1.313985
2008-12-09 09:17:27 51°13.744 2°52.71 -999 0.025022 0.14118 -1.313985
2008-12-09 09:17:32 51°13.742 2°52.706 -999 0.024714 0.139453 -1.313985
2008-12-09 09:17:37 51°13.741 2°52.701 -999 0.025022 0.141208 -1.313985
2008-12-09 09:17:42 51°13.739 2°52.698 -999 0.027081 0.152861 -1.313985
2008-12-09 09:17:47 51°13.737 2°52.694 -999 0.027081 0.152861 -1.313985
2008-12-09 09:17:52 51°13.736 2°52.69 -999 0.024508 0.13829 -1.313985
2008-12-09 09:17:57 51°13.734 2°52.687 -999 0.024817 0.140044 -1.313985
2008-12-09 09:18:02 51°13.733 2°52.683 -999 0.024611 0.138876 -1.313985
2008-12-09 09:18:07 51°13.732 2°52.679 -999 0.02492 0.140621 -1.313985
2008-12-09 09:18:12 51°13.73 2°52.675 -999 0.023891 0.134808 -1.313985
2008-12-09 09:18:17 51°13.729 2°52.671 -999 0.023891 0.134808 -1.313985
2008-12-09 09:18:22 51°13.728 2°52.667 -999 0.024817 0.140064 -1.313985
2008-12-09 09:18:27 51°13.726 2°52.663 -999 0.024096 0.135997 -1.313985
2008-12-09 09:18:32 51°13.725 2°52.659 -999 0.026463 0.149416 -1.279161
2008-12-09 09:18:37 51°13.723 2°52.656 -999 0.024611 0.138949 -1.313985
2008-12-09 09:18:42 51°13.722 2°52.652 -999 0.024508 0.138363 -1.279161
2008-12-09 09:18:47 51°13.721 2°52.649 -999 0.024508 0.138363 -1.279161
2008-12-09 09:18:52 51°13.72 2°52.645 -999 0.025743 0.145373 -1.313985
2008-12-09 09:18:57 51°13.718 2°52.641 -999 0.025846 0.145969 -1.313985
2008-12-09 09:19:02 51°13.717 2°52.637 -999 0.025228 0.142469 -1.313985
2008-12-09 09:19:07 51°13.715 2°52.633 -999 0.024714 0.139563 -1.313985
2008-12-09 09:19:12 51°13.714 2°52.629 -999 0.026052 0.147136 -1.313985
2008-12-09 09:19:17 51°13.713 2°52.624 -999 0.026052 0.147136 -1.313985
2008-12-09 09:19:22 51°13.712 2°52.619 -999 0.024817 0.140125 -1.313985
2008-12-09 09:19:27 51°13.71 2°52.613 -999 0.024405 0.137806 -1.313985
2008-12-09 09:19:32 51°13.709 2°52.608 -999 0.024405 0.137818 -1.313985
2008-12-09 09:19:37 51°13.709 2°52.602 -999 0.024714 0.139561 -1.313985
2008-12-09 09:19:42 51°13.708 2°52.596 -999 0.025846 0.145975 -1.313985
2008-12-09 09:19:47 51°13.707 2°52.59 -999 0.025846 0.145975 -1.313985
2008-12-09 09:19:52 51°13.706 2°52.585 -999 0.02564 0.144813 -1.279161
2008-12-09 09:19:57 51°13.704 2°52.58 -999 0.024199 0.136686 -1.313985
2008-12-09 09:20:02 51°13.703 2°52.574 -999 0.025228 0.142509 -1.313985
2008-12-09 09:20:07 51°13.702 2°52.569 -999 0.023582 0.133204 -1.279161
2008-12-09 09:20:12 51°13.701 2°52.563 -999 0.025434 0.14368 -1.313985
2008-12-09 09:20:17 51°13.7 2°52.559 -999 0.025434 0.14368 -1.313985
2008-12-09 09:20:22 51°13.699 2°52.554 -999 0.025022 0.141374 -1.313985
2008-12-09 09:20:27 51°13.698 2°52.549 -999 0.023891 0.134984 -1.313985
2008-12-09 09:20:32 51°13.698 2°52.545 -999 0.025125 0.141967 -1.313985
2008-12-09 09:20:37 51°13.697 2°52.54 -999 0.024405 0.13789 -1.313985
2008-12-09 09:20:42 51°13.696 2°52.536 -999 0.023376 0.1321 -1.313985
2008-12-09 09:20:47 51°13.695 2°52.531 -999 0.023376 0.1321 -1.313985
2008-12-09 09:20:52 51°13.695 2°52.527 -999 0.024302 0.137318 -1.279161
2008-12-09 09:20:57 51°13.694 2°52.523 -999 0.023891 0.134994 -1.279161
2008-12-09 09:21:02 51°13.694 2°52.518 -999 0.023685 0.133834 -1.279161
2008-12-09 09:21:07 51°13.693 2°52.514 -999 0.023479 0.132707 -1.313985
2008-12-09 09:21:12 51°13.692 2°52.509 -999 0.023376 0.13214 -1.313985
2008-12-09 09:21:17 51°13.691 2°52.505 -999 0.023376 0.13214 -1.313985
2008-12-09 09:21:22 51°13.691 2°52.5 -999 0.023067 0.130386 -1.313985
2008-12-09 09:21:27 51°13.69 2°52.496 -999 0.023376 0.132121 -1.279161
2008-12-09 09:21:32 51°13.689 2°52.492 -999 0.024405 0.137951 -1.279161
2008-12-09 09:21:37 51°13.688 2°52.488 -999 0.024096 0.136197 -1.313985
2008-12-09 09:21:42 51°13.687 2°52.484 -999 0.024199 0.136784 -1.279161
2008-12-09 09:21:47 51°13.686 2°52.48 -999 0.024199 0.136784 -1.279161
2008-12-09 09:21:52 51°13.684 2°52.476 -999 0.02492 0.140856 -1.279161
2008-12-09 09:21:57 51°13.683 2°52.473 -999 0.024817 0.140276 -1.313985
2008-12-09 09:22:02 51°13.682 2°52.469 -999 0.025125 0.142034 -1.313985
2008-12-09 09:22:07 51°13.681 2°52.465 -999 0.025743 0.145535 -1.313985
2008-12-09 09:22:12 51°13.68 2°52.461 -999 0.023891 0.135036 -1.279161
2008-12-09 09:22:17 51°13.679 2°52.457 -999 0.023891 0.135036 -1.279161
2008-12-09 09:22:22 51°13.678 2°52.453 -999 0.025331 0.143203 -1.279161
2008-12-09 09:22:27 51°13.677 2°52.449 -999 0.025537 0.144398 -1.279161
2008-12-09 09:22:32 51°13.676 2°52.445 -999 0.024302 0.137419 -1.313985
2008-12-09 09:22:37 51°13.675 2°52.441 -999 0.025537 0.144432 -1.313985
2008-12-09 09:22:42 51°13.674 2°52.437 -999 0.025228 0.142698 -1.313985
2008-12-09 09:22:47 51°13.674 2°52.433 -999 0.025228 0.142698 -1.313985
2008-12-09 09:22:52 51°13.673 2°52.429 -999 0.023582 0.133386 -1.313985
2008-12-09 09:22:57 51°13.672 2°52.425 -999 0.02492 0.140943 -1.279161
2008-12-09 09:23:02 51°13.671 2°52.421 -999 0.025022 0.141531 -1.313985
2008-12-09 09:23:07 51°13.67 2°52.417 -999 0.023479 0.132802 -1.279161
2008-12-09 09:23:12 51°13.669 2°52.413 -999 0.023273 0.131648 -1.279161
2008-12-09 09:23:17 51°13.668 2°52.41 -999 0.023273 0.131648 -1.279161
2008-12-09 09:23:22 51°13.666 2°52.406 -999 0.042517 0.242247 -1.244337
2008-12-09 09:23:27 51°13.666 2°52.402 -999 0.420297 2.658405 -0.791624
2008-12-09 09:23:32 51°13.665 2°52.399 -999 1.41751 9.79801 -0.687152
2008-12-09 09:23:37 51°13.664 2°52.395 -999 4.008972 30.849099 1.64606
2008-12-09 09:23:42 51°13.663 2°52.391 -999 4.100782 32.536302 1.82018
2008-12-09 09:23:47 51°13.662 2°52.387 -999 4.100782 32.536302 1.82018
2008-12-09 09:23:52 51°13.66 2°52.383 -999 3.879075 32.108608 1.959476
2008-12-09 09:23:57 51°13.659 2°52.38 -999 3.710327 32.006016 1.715708
2008-12-09 09:24:02 51°13.659 2°52.376 -999 3.637589 32.604223 1.715708
2008-12-09 09:24:07 51°13.658 2°52.372 -999 3.63874 33.488002 1.680884
2008-12-09 09:24:12 51°13.657 2°52.369 -999 3.514095 32.937168 1.611236
2008-12-09 09:24:17 51°13.656 2°52.365 -999 3.514095 32.937168 1.611236
2008-12-09 09:24:22 51°13.655 2°52.362 -999 3.472659 32.901088 1.576412
2008-12-09 09:24:27 51°13.654 2°52.358 -999 3.444796 32.983761 1.541588
2008-12-09 09:24:32 51°13.653 2°52.354 -999 3.419626 32.870845 1.576412
2008-12-09 09:24:37 51°13.652 2°52.351 -999 3.403469 32.873828 1.506764
2008-12-09 09:24:42 51°13.651 2°52.347 -999 3.390108 32.848399 1.506764
2008-12-09 09:24:47 51°13.65 2°52.344 -999 3.390108 32.848399 1.506764
2008-12-09 09:24:52 51°13.649 2°52.341 -999 3.380166 32.815869 1.47194
2008-12-09 09:24:57 51°13.648 2°52.337 -999 3.360798 32.656181 1.47194
2008-12-09 09:25:02 51°13.647 2°52.334 -999 3.369913 32.801873 1.437116
2008-12-09 09:25:07 51°13.646 2°52.33 -999 3.365252 32.792867 1.437116
2008-12-09 09:25:12 51°13.646 2°52.326 -999 3.361731 32.791777 1.47194
2008-12-09 09:25:17 51°13.645 2°52.323 -999 3.361731 32.791777 1.47194
2008-12-09 09:25:22 51°13.644 2°52.319 -999 3.358728 32.78307 1.437116
2008-12-09 09:25:27 51°13.643 2°52.315 -999 3.357382 32.793194 1.47194
2008-12-09 09:25:32 51°13.643 2°52.311 -999 3.346507 32.680661 1.437116
2008-12-09 09:25:37 51°13.642 2°52.307 -999 3.354482 32.78649 1.506764
2008-12-09 09:25:42 51°13.641 2°52.303 -999 3.349304 32.74623 1.47194
2008-12-09 09:25:47 51°13.64 2°52.299 -999 3.349304 32.74623 1.47194
2008-12-09 09:25:52 51°13.64 2°52.295 -999 3.350858 32.779873 1.437116
2008-12-09 09:25:57 51°13.639 2°52.291 -999 3.347958 32.760778 1.47194
2008-12-09 09:26:02 51°13.638 2°52.287 -999 3.348372 32.780315 1.437116
2008-12-09 09:26:07 51°13.638 2°52.282 -999 3.346715 32.767628 1.437116
2008-12-09 09:26:12 51°13.637 2°52.278 -999 3.346508 32.768033 1.437116
2008-12-09 09:26:17 51°13.636 2°52.275 -999 3.346508 32.768033 1.437116
2008-12-09 09:26:22 51°13.635 2°52.271 -999 3.344851 32.751804 1.402292
2008-12-09 09:26:27 51°13.635 2°52.267 -999 3.345162 32.756063 1.437116
2008-12-09 09:26:32 51°13.634 2°52.263 -999 3.345162 32.759603 1.437116
2008-12-09 09:26:37 51°13.633 2°52.26 -999 3.346612 32.789528 1.402292
2008-12-09 09:26:42 51°13.632 2°52.257 -999 3.346198 32.800983 1.402292
2008-12-09 09:26:47 51°13.631 2°52.253 -999 3.346198 32.800983 1.402292
2008-12-09 09:26:52 51°13.63 2°52.25 -999 3.344644 32.789411 1.367467
2008-12-09 09:26:57 51°13.629 2°52.246 -999 3.344126 32.789101 1.402292
2008-12-09 09:27:02 51°13.628 2°52.242 -999 3.34278 32.779778 1.402292
2008-12-09 09:27:07 51°13.627 2°52.239 -999 3.342366 32.779706 1.367467
2008-12-09 09:27:12 51°13.626 2°52.235 -999 3.346923 32.82751 1.367467
2008-12-09 09:27:17 51°13.625 2°52.232 -999 3.346923 32.82751 1.367467
2008-12-09 09:27:22 51°13.624 2°52.228 -999 3.347544 32.833383 1.367467
2008-12-09 09:27:27 51°13.623 2°52.224 -999 3.34713 32.835983 1.297819
2008-12-09 09:27:32 51°13.623 2°52.22 -999 3.347234 32.846889 1.332643
2008-12-09 09:27:37 51°13.622 2°52.216 -999 3.348373 32.86552 1.367467
2008-12-09 09:27:42 51°13.621 2°52.212 -999 3.347959 32.864569 1.332643
2008-12-09 09:27:47 51°13.62 2°52.208 -999 3.347959 32.864569 1.332643
2008-12-09 09:27:52 51°13.62 2°52.204 -999 3.346923 32.859521 1.297819
2008-12-09 09:27:57 51°13.619 2°52.2 -999 3.345473 32.846399 1.297819
2008-12-09 09:28:02 51°13.618 2°52.196 -999 3.347545 32.874304 1.297819
2008-12-09 09:28:07 51°13.617 2°52.192 -999 3.347752 32.880124 1.297819
2008-12-09 09:28:12 51°13.616 2°52.188 -999 3.348063 32.885291 1.297819
2008-12-09 09:28:17 51°13.616 2°52.184 -999 3.348063 32.885291 1.297819
2008-12-09 09:28:22 51°13.615 2°52.18 -999 3.347856 32.884817 1.297819
2008-12-09 09:28:27 51°13.614 2°52.176 -999 3.347959 32.891294 1.297819
2008-12-09 09:28:32 51°13.613 2°52.171 -999 3.348166 32.893552 1.262995
2008-12-09 09:28:37 51°13.612 2°52.167 -999 3.348788 32.903 1.297819
2008-12-09 09:28:42 51°13.611 2°52.163 -999 3.348166 32.901579 1.262995
2008-12-09 09:28:47 51°13.611 2°52.159 -999 3.348166 32.901579 1.262995
2008-12-09 09:28:52 51°13.61 2°52.155 -999 3.348166 32.902471 1.262995
2008-12-09 09:28:57 51°13.608 2°52.151 -999 3.348166 32.904255 1.262995
2008-12-09 09:29:02 51°13.607 2°52.148 -999 3.347649 32.899502 1.262995
2008-12-09 09:29:07 51°13.605 2°52.144 -999 3.347856 32.902652 1.228171
2008-12-09 09:29:12 51°13.604 2°52.14 -999 3.347959 32.907351 1.228171
2008-12-09 09:29:17 51°13.603 2°52.137 -999 3.347959 32.907351 1.228171
2008-12-09 09:29:22 51°13.602 2°52.133 -999 3.34827 32.915203 1.228171
2008-12-09 09:29:27 51°13.601 2°52.13 -999 3.347338 32.908608 1.262995
2008-12-09 09:29:32 51°13.6 2°52.126 -999 3.348581 32.922163 1.228171
2008-12-09 09:29:37 51°13.599 2°52.122 -999 3.348581 32.92395 1.158523
2008-12-09 09:29:42 51°13.598 2°52.119 -999 3.34682 32.903853 1.193347
2008-12-09 09:29:47 51°13.597 2°52.116 -999 3.34682 32.903853 1.193347
2008-12-09 09:29:52 51°13.596 2°52.112 -999 3.348684 32.9224 1.193347
2008-12-09 09:29:57 51°13.595 2°52.109 -999 3.348892 32.924659 1.193347
2008-12-09 09:30:02 51°13.594 2°52.105 -999 3.347131 32.904564 1.193347
2008-12-09 09:30:07 51°13.593 2°52.101 -999 3.348374 32.916332 1.193347
2008-12-09 09:30:12 51°13.592 2°52.098 -999 3.348477 32.919247 1.193347
2008-12-09 09:30:17 51°13.591 2°52.094 -999 3.348477 32.919247 1.193347
2008-12-09 09:30:22 51°13.59 2°52.089 -999 3.348581 32.92127 1.193347
2008-12-09 09:30:27 51°13.589 2°52.085 -999 3.348684 32.925079 1.228171
2008-12-09 09:30:32 51°13.588 2°52.08 -999 3.348684 32.925079 1.228171
2008-12-09 09:30:37 51°13.587 2°52.076 -999 3.348684 32.925079 1.193347
2008-12-09 09:30:42 51°13.587 2°52.071 -999 3.349513 32.934117 1.193347
2008-12-09 09:30:47 51°13.586 2°52.066 -999 3.349513 32.934117 1.193347
2008-12-09 09:30:52 51°13.585 2°52.062 -999 3.349202 32.930728 1.158523
2008-12-09 09:30:57 51°13.584 2°52.057 -999 3.348995 32.929362 1.158523
2008-12-09 09:31:02 51°13.582 2°52.052 -999 3.349824 32.936613 1.193347
2008-12-09 09:31:07 51°13.581 2°52.048 -999 3.350652 32.948333 1.158523
2008-12-09 09:31:12 51°13.58 2°52.043 -999 3.350445 32.950543 1.158523
2008-12-09 09:31:17 51°13.579 2°52.039 -999 3.350445 32.950543 1.158523
2008-12-09 09:31:22 51°13.578 2°52.035 -999 3.350238 32.952754 1.193347
2008-12-09 09:31:27 51°13.577 2°52.031 -999 3.349099 32.943005 1.193347
2008-12-09 09:31:32 51°13.577 2°52.027 -999 3.350135 32.953413 1.158523
2008-12-09 09:31:37 51°13.576 2°52.023 -999 3.350652 32.957275 1.158523
2008-12-09 09:31:42 51°13.575 2°52.019 -999 3.349306 32.939901 1.158523
2008-12-09 09:31:47 51°13.574 2°52.016 -999 3.349306 32.939901 1.158523
2008-12-09 09:31:52 51°13.573 2°52.012 -999 3.350342 32.952096 1.158523
2008-12-09 09:31:57 51°13.572 2°52.008 -999 3.351377 32.962502 1.123699
2008-12-09 09:32:02 51°13.571 2°52.004 -999 3.350756 32.954827 1.123699
2008-12-09 09:32:07 51°13.57 2°52.001 -999 3.351377 32.961608 1.158523
2008-12-09 09:32:12 51°13.569 2°51.996 -999 3.351895 32.969943 1.158523
2008-12-09 09:32:17 51°13.568 2°51.992 -999 3.351895 32.969943 1.158523
2008-12-09 09:32:22 51°13.568 2°51.988 -999 3.351481 32.967211 1.158523
2008-12-09 09:32:27 51°13.567 2°51.984 -999 3.351585 32.968342 1.123699
2008-12-09 09:32:32 51°13.566 2°51.979 -999 3.351585 32.967447 1.158523
2008-12-09 09:32:37 51°13.565 2°51.975 -999 3.350238 32.950966 1.158523
2008-12-09 09:32:42 51°13.565 2°51.97 -999 3.34972 32.944421 1.158523
2008-12-09 09:32:47 51°13.564 2°51.966 -999 3.34972 32.944421 1.158523
2008-12-09 09:32:52 51°13.563 2°51.962 -999 3.349513 32.946632 1.193347
2008-12-09 09:32:57 51°13.562 2°51.958 -999 3.350445 32.959487 1.123699
2008-12-09 09:33:02 51°13.561 2°51.954 -999 3.351274 32.96853 1.193347
2008-12-09 09:33:07 51°13.56 2°51.95 -999 3.351481 32.974371 1.158523
2008-12-09 09:33:12 51°13.559 2°51.945 -999 3.351688 32.976632 1.158523
2008-12-09 09:33:17 51°13.558 2°51.941 -999 3.351688 32.976632 1.158523
2008-12-09 09:33:22 51°13.557 2°51.937 -999 3.351895 32.979789 1.123699
2008-12-09 09:33:27 51°13.556 2°51.933 -999 3.351999 32.980024 1.158523
2008-12-09 09:33:32 51°13.555 2°51.928 -999 3.351792 32.975077 1.123699
2008-12-09 09:33:37 51°13.555 2°51.924 -999 3.351895 32.975312 1.123699
2008-12-09 09:33:42 51°13.554 2°51.92 -999 3.351999 32.977338 1.158523
2008-12-09 09:33:47 51°13.553 2°51.915 -999 3.351999 32.977338 1.158523
2008-12-09 09:33:52 51°13.551 2°51.911 -999 3.352206 32.979599 1.158523
2008-12-09 09:33:57 51°13.55 2°51.906 -999 3.35231 32.983415 1.158523
2008-12-09 09:34:02 51°13.549 2°51.902 -999 3.35262 32.989494 1.158523
2008-12-09 09:34:07 51°13.548 2°51.897 -999 3.35262 32.99039 1.158523
2008-12-09 09:34:12 51°13.548 2°51.893 -999 3.351688 32.979318 1.158523
2008-12-09 09:34:17 51°13.546 2°51.889 -999 3.351688 32.979318 1.158523
2008-12-09 09:34:22 51°13.545 2°51.885 -999 3.351792 32.977763 1.158523
2008-12-09 09:34:27 51°13.544 2°51.88 -999 3.351585 32.974607 1.123699
2008-12-09 09:34:32 51°13.543 2°51.876 -999 3.352103 32.982945 1.123699
2008-12-09 09:34:37 51°13.542 2°51.872 -999 3.350031 32.963914 1.123699
2008-12-09 09:34:42 51°13.54 2°51.868 -999 3.350963 32.975881 1.158523
2008-12-09 09:34:47 51°13.539 2°51.864 -999 3.350963 32.975881 1.158523
2008-12-09 09:34:52 51°13.538 2°51.86 -999 3.350445 32.972018 1.193347
2008-12-09 09:34:57 51°13.536 2°51.857 -999 3.352206 32.992138 1.158523
2008-12-09 09:35:02 51°13.535 2°51.854 -999 3.352517 32.99553 1.158523
2008-12-09 09:35:07 51°13.534 2°51.85 -999 3.351688 32.987379 1.088875
2008-12-09 09:35:12 51°13.533 2°51.847 -999 3.352206 32.993034 1.158523
2008-12-09 09:35:17 51°13.531 2°51.843 -999 3.352206 32.993034 1.158523
2008-12-09 09:35:22 51°13.53 2°51.84 -999 3.35262 32.997557 1.123699
2008-12-09 09:35:27 51°13.529 2°51.836 -999 3.350653 32.976966 1.123699
2008-12-09 09:35:32 51°13.528 2°51.832 -999 3.352206 32.993034 1.158523
2008-12-09 09:35:37 51°13.527 2°51.828 -999 3.351688 32.986483 1.193347
2008-12-09 09:35:42 51°13.526 2°51.824 -999 3.352413 32.992607 1.158523
2008-12-09 09:35:47 51°13.524 2°51.82 -999 3.352413 32.992607 1.158523
2008-12-09 09:35:52 51°13.523 2°51.816 -999 3.352931 32.997366 1.158523
2008-12-09 09:35:57 51°13.522 2°51.812 -999 3.353138 33.000523 1.123699
2008-12-09 09:36:02 51°13.521 2°51.808 -999 3.351378 32.982195 1.193347
2008-12-09 09:36:07 51°13.52 2°51.804 -999 3.353242 33.000758 1.123699
2008-12-09 09:36:12 51°13.519 2°51.799 -999 3.353449 33.00302 1.123699
2008-12-09 09:36:17 51°13.518 2°51.794 -999 3.353449 33.00302 1.123699
2008-12-09 09:36:22 51°13.517 2°51.79 -999 3.352931 32.997366 1.158523
2008-12-09 09:36:27 51°13.516 2°51.786 -999 3.352206 32.988554 1.158523
2008-12-09 09:36:32 51°13.514 2°51.781 -999 3.352413 32.993503 1.123699
2008-12-09 09:36:37 51°13.513 2°51.776 -999 3.35262 32.996661 1.158523
2008-12-09 09:36:42 51°13.512 2°51.772 -999 3.353656 33.007971 1.158523
2008-12-09 09:36:47 51°13.511 2°51.767 -999 3.353656 33.007971 1.158523
2008-12-09 09:36:52 51°13.51 2°51.762 -999 3.351999 32.990772 1.193347
2008-12-09 09:36:57 51°13.509 2°51.757 -999 3.353656 33.011557 1.158523
2008-12-09 09:37:02 51°13.508 2°51.753 -999 3.353345 33.00637 1.193347
2008-12-09 09:37:07 51°13.507 2°51.748 -999 3.352517 32.996426 1.158523
2008-12-09 09:37:12 51°13.506 2°51.744 -999 3.35086 32.977436 1.193347
2008-12-09 09:37:17 51°13.506 2°51.739 -999 3.35086 32.977436 1.193347
2008-12-09 09:37:22 51°13.505 2°51.734 -999 3.352206 32.991242 1.158523
2008-12-09 09:37:27 51°13.504 2°51.73 -999 3.353035 33.001185 1.158523
2008-12-09 09:37:32 51°13.503 2°51.725 -999 3.351585 32.986248 1.228171
2008-12-09 09:37:37 51°13.502 2°51.721 -999 3.353656 33.009763 1.193347
2008-12-09 09:37:42 51°13.501 2°51.716 -999 3.353242 33.004343 1.193347
2008-12-09 09:37:47 51°13.5 2°51.712 -999 3.353242 33.004343 1.193347
2008-12-09 09:37:52 51°13.5 2°51.708 -999 3.352413 32.994399 1.123699
2008-12-09 09:37:57 51°13.499 2°51.704 -999 3.353242 33.003447 1.158523
2008-12-09 09:38:02 51°13.498 2°51.699 -999 3.352828 32.998923 1.193347
2008-12-09 09:38:07 51°13.497 2°51.695 -999 3.352517 32.997322 1.158523
2008-12-09 09:38:12 51°13.497 2°51.691 -999 3.353553 33.008632 1.158523
2008-12-09 09:38:17 51°13.496 2°51.687 -999 3.353553 33.008632 1.158523
2008-12-09 09:38:22 51°13.494 2°51.682 -999 3.351378 32.985778 1.228171
2008-12-09 09:38:27 51°13.494 2°51.677 -999 3.354278 33.017446 1.193347
2008-12-09 09:38:32 51°13.493 2°51.673 -999 3.354588 33.021737 1.193347
2008-12-09 09:38:37 51°13.492 2°51.669 -999 3.354692 33.021971 1.228171
2008-12-09 09:38:42 51°13.491 2°51.665 -999 3.35376 33.012688 1.158523
2008-12-09 09:38:47 51°13.49 2°51.661 -999 3.35376 33.012688 1.158523
2008-12-09 09:38:52 51°13.489 2°51.656 -999 3.35376 33.011791 1.193347
2008-12-09 09:38:57 51°13.489 2°51.652 -999 3.354381 33.017681 1.228171
2008-12-09 09:39:02 51°13.488 2°51.648 -999 3.354588 33.019046 1.158523
2008-12-09 09:39:07 51°13.487 2°51.644 -999 3.354485 33.015225 1.158523
2008-12-09 09:39:12 51°13.487 2°51.64 -999 3.35262 32.993077 1.228171
2008-12-09 09:39:17 51°13.486 2°51.636 -999 3.35262 32.993077 1.228171
2008-12-09 09:39:22 51°13.485 2°51.632 -999 3.35376 33.00462 1.158523
2008-12-09 09:39:27 51°13.484 2°51.628 -999 3.354485 33.015225 1.158523
2008-12-09 09:39:32 51°13.484 2°51.624 -999 3.353553 33.005943 1.193347
2008-12-09 09:39:37 51°13.482 2°51.621 -999 3.355003 33.022674 1.193347
2008-12-09 09:39:42 51°13.482 2°51.616 -999 3.354692 33.019281 1.193347
2008-12-09 09:39:47 51°13.481 2°51.613 -999 3.354692 33.019281 1.193347
2008-12-09 09:39:52 51°13.48 2°51.609 -999 3.355003 33.02357 1.193347
2008-12-09 09:39:57 51°13.479 2°51.605 -999 3.355106 33.024702 1.193347
2008-12-09 09:40:02 51°13.478 2°51.601 -999 3.35521 33.027627 1.158523
2008-12-09 09:40:07 51°13.477 2°51.597 -999 3.35376 33.010894 1.193347
2008-12-09 09:40:12 51°13.476 2°51.594 -999 3.354692 33.019281 1.158523
2008-12-09 09:40:17 51°13.475 2°51.59 -999 3.354692 33.019281 1.158523
2008-12-09 09:40:22 51°13.474 2°51.586 -999 3.355728 33.030591 1.158523
2008-12-09 09:40:27 51°13.473 2°51.582 -999 3.356142 33.034218 1.158523
2008-12-09 09:40:32 51°13.472 2°51.578 -999 3.35666 33.038079 1.158523
2008-12-09 09:40:37 51°13.471 2°51.574 -999 3.356556 33.036948 1.158523
2008-12-09 09:40:42 51°13.47 2°51.569 -999 3.355935 33.031059 1.123699
2008-12-09 09:40:47 51°13.47 2°51.565 -999 3.355935 33.031059 1.123699
2008-12-09 09:40:52 51°13.469 2°51.561 -999 3.35552 33.027432 1.088875
2008-12-09 09:40:57 51°13.468 2°51.557 -999 3.355935 33.031956 1.088875
2008-12-09 09:41:02 51°13.468 2°51.553 -999 3.355935 33.031956 1.088875
2008-12-09 09:41:07 51°13.467 2°51.549 -999 3.356763 33.041902 1.123699
2008-12-09 09:41:12 51°13.466 2°51.544 -999 3.356349 33.03648 1.088875
2008-12-09 09:41:17 51°13.466 2°51.54 -999 3.356349 33.03648 1.088875
2008-12-09 09:41:22 51°13.465 2°51.536 -999 3.356763 33.03921 1.088875
2008-12-09 09:41:27 51°13.464 2°51.532 -999 3.356556 33.036051 1.123699
2008-12-09 09:41:32 51°13.464 2°51.527 -999 3.357488 33.047128 1.088875
2008-12-09 09:41:37 51°13.464 2°51.523 -999 3.357385 33.045099 1.088875
2008-12-09 09:41:42 51°13.463 2°51.518 -999 3.358006 33.050091 1.088875
2008-12-09 09:41:47 51°13.463 2°51.514 -999 3.358006 33.050091 1.088875
2008-12-09 09:41:52 51°13.462 2°51.509 -999 3.357178 33.041043 1.054051
2008-12-09 09:41:57 51°13.461 2°51.505 -999 3.357903 33.049857 1.054051
2008-12-09 09:42:02 51°13.461 2°51.501 -999 3.357903 33.049857 1.088875
2008-12-09 09:42:07 51°13.46 2°51.497 -999 3.357178 33.04194 1.088875
2008-12-09 09:42:12 51°13.46 2°51.493 -999 3.358213 33.05325 1.088875
2008-12-09 09:42:17 51°13.459 2°51.489 -999 3.358213 33.05325 1.088875
2008-12-09 09:42:22 51°13.459 2°51.485 -999 3.358835 33.058242 1.054051
2008-12-09 09:42:27 51°13.458 2°51.481 -999 3.359456 33.06413 1.054051
2008-12-09 09:42:32 51°13.458 2°51.477 -999 3.359353 33.064795 1.054051
2008-12-09 09:42:37 51°13.457 2°51.472 -999 3.359767 33.069319 1.054051
2008-12-09 09:42:42 51°13.456 2°51.467 -999 3.359249 33.062766 1.019227
2008-12-09 09:42:47 51°13.456 2°51.462 -999 3.359249 33.062766 1.019227
2008-12-09 09:42:52 51°13.456 2°51.458 -999 3.35956 33.067057 0.984403
2008-12-09 09:42:57 51°13.455 2°51.453 -999 3.359663 33.06729 1.019227
2008-12-09 09:43:02 51°13.454 2°51.447 -999 3.360285 33.074077 0.984403
2008-12-09 09:43:07 51°13.454 2°51.442 -999 3.360595 33.07747 0.984403
2008-12-09 09:43:12 51°13.453 2°51.437 -999 3.359663 33.06729 1.019227
2008-12-09 09:43:17 51°13.452 2°51.432 -999 3.359663 33.06729 1.019227
2008-12-09 09:43:22 51°13.452 2°51.427 -999 3.361113 33.081329 0.984403
2008-12-09 09:43:27 51°13.451 2°51.422 -999 3.36132 33.079999 0.984403
2008-12-09 09:43:32 51°13.451 2°51.416 -999 3.36132 33.078203 0.984403
2008-12-09 09:43:37 51°13.449 2°51.412 -999 3.361528 33.079567 0.949579
2008-12-09 09:43:42 51°13.449 2°51.408 -999 3.36132 33.077305 1.019227
2008-12-09 09:43:47 51°13.448 2°51.404 -999 3.36132 33.077305 1.019227
2008-12-09 09:43:52 51°13.448 2°51.399 -999 3.361838 33.082959 0.984403
2008-12-09 09:43:57 51°13.447 2°51.396 -999 3.362356 33.088614 0.949579
2008-12-09 09:44:02 51°13.446 2°51.393 -999 3.361942 33.08409 0.914755
2008-12-09 09:44:07 51°13.446 2°51.389 -999 3.363081 33.096531 0.914755
2008-12-09 09:44:12 51°13.446 2°51.386 -999 3.36277 33.09224 0.914755
2008-12-09 09:44:17 51°13.445 2°51.382 -999 3.36277 33.09224 0.914755
2008-12-09 09:44:22 51°13.445 2°51.379 -999 3.36277 33.091341 0.949579
2008-12-09 09:44:27 51°13.444 2°51.376 -999 3.36277 33.090443 0.984403
2008-12-09 09:44:32 51°13.443 2°51.373 -999 3.363495 33.098359 0.914755
2008-12-09 09:44:37 51°13.442 2°51.37 -999 3.363599 33.097694 0.949579
2008-12-09 09:44:42 51°13.442 2°51.367 -999 3.363806 33.099057 0.914755
2008-12-09 09:44:47 51°13.441 2°51.364 -999 3.363806 33.099057 0.914755
2008-12-09 09:44:52 51°13.44 2°51.361 -999 3.363703 33.099723 0.914755
2008-12-09 09:44:57 51°13.44 2°51.359 -999 3.364635 33.1108 0.914755
2008-12-09 09:45:02 51°13.439 2°51.356 -999 3.356867 33.025096 0.914755
2008-12-09 09:45:07 51°13.438 2°51.352 -999 3.363495 33.097461 0.914755
2008-12-09 09:45:12 51°13.438 2°51.349 -999 3.364013 33.102217 0.914755
2008-12-09 09:45:17 51°13.437 2°51.345 -999 3.364013 33.102217 0.914755
2008-12-09 09:45:22 51°13.436 2°51.342 -999 3.364842 33.110366 0.914755
2008-12-09 09:45:27 51°13.436 2°51.338 -999 3.365153 33.11286 0.879931
2008-12-09 09:45:32 51°13.435 2°51.335 -999 3.364738 33.108336 0.879931
2008-12-09 09:45:37 51°13.434 2°51.331 -999 3.365774 33.117847 0.879931
2008-12-09 09:45:42 51°13.433 2°51.327 -999 3.365463 33.113556 0.879931
2008-12-09 09:45:47 51°13.433 2°51.323 -999 3.365463 33.113556 0.879931
2008-12-09 09:45:52 51°13.431 2°51.319 -999 3.366395 33.123734 0.879931
2008-12-09 09:45:57 51°13.43 2°51.315 -999 3.366499 33.124865 0.845107
2008-12-09 09:46:02 51°13.429 2°51.312 -999 3.366085 33.118544 0.879931
2008-12-09 09:46:07 51°13.428 2°51.308 -999 3.366603 33.125097 0.879931
2008-12-09 09:46:12 51°13.428 2°51.305 -999 3.366603 33.125097 0.879931
2008-12-09 09:46:17 51°13.427 2°51.3 -999 3.366603 33.125097 0.879931
2008-12-09 09:46:22 51°13.426 2°51.297 -999 3.366188 33.119674 0.914755
2008-12-09 09:46:27 51°13.425 2°51.292 -999 3.366913 33.12759 0.845107
2008-12-09 09:46:32 51°13.424 2°51.288 -999 3.367535 33.134375 0.845107
2008-12-09 09:46:37 51°13.424 2°51.284 -999 3.366395 33.122835 0.879931
2008-12-09 09:46:42 51°13.423 2°51.279 -999 3.367845 33.137768 0.810283
2008-12-09 09:46:47 51°13.422 2°51.275 -999 3.367845 33.137768 0.810283
2008-12-09 09:46:52 51°13.421 2°51.27 -999 3.367328 33.131214 0.845107
2008-12-09 09:46:57 51°13.421 2°51.266 -999 3.36712 33.128953 0.845107
2008-12-09 09:47:02 51°13.42 2°51.261 -999 3.367845 33.134171 0.914755
2008-12-09 09:47:07 51°13.419 2°51.257 -999 3.367845 33.133272 0.879931
2008-12-09 09:47:12 51°13.419 2°51.252 -999 3.367638 33.129213 0.845107
2008-12-09 09:47:17 51°13.417 2°51.247 -999 3.367638 33.129213 0.845107
2008-12-09 09:47:22 51°13.416 2°51.243 -999 3.367742 33.131243 0.879931
2008-12-09 09:47:27 51°13.415 2°51.239 -999 3.368053 33.135534 0.914755
2008-12-09 09:47:32 51°13.414 2°51.235 -999 3.367742 33.13394 0.914755
2008-12-09 09:47:37 51°13.413 2°51.231 -999 3.367638 33.132809 0.845107
2008-12-09 09:47:42 51°13.413 2°51.227 -999 3.36826 33.138694 0.845107
2008-12-09 09:47:47 51°13.412 2°51.222 -999 3.36826 33.138694 0.845107
2008-12-09 09:47:52 51°13.411 2°51.218 -999 3.36826 33.136896 0.879931
2008-12-09 09:47:57 51°13.41 2°51.214 -999 3.368467 33.137359 0.845107
2008-12-09 09:48:02 51°13.41 2°51.209 -999 3.369295 33.143707 0.879931
2008-12-09 09:48:07 51°13.409 2°51.204 -999 3.368674 33.136025 0.810283
2008-12-09 09:48:12 51°13.409 2°51.199 -999 3.369813 33.148461 0.879931
2008-12-09 09:48:17 51°13.408 2°51.195 -999 3.369813 33.148461 0.879931
2008-12-09 09:48:22 51°13.407 2°51.19 -999 3.369295 33.142808 0.845107
2008-12-09 09:48:27 51°13.406 2°51.185 -999 3.36971 33.14823 0.810283
2008-12-09 09:48:32 51°13.405 2°51.181 -999 3.369606 33.147998 0.845107
2008-12-09 09:48:37 51°13.405 2°51.176 -999 3.370228 33.154782 0.845107
2008-12-09 09:48:42 51°13.404 2°51.172 -999 3.369813 33.148461 0.845107
2008-12-09 09:48:47 51°13.404 2°51.167 -999 3.369813 33.148461 0.845107
2008-12-09 09:48:52 51°13.404 2°51.162 -999 3.370435 33.155245 0.845107
2008-12-09 09:48:57 51°13.403 2°51.158 -999 3.370124 33.151853 0.845107
2008-12-09 09:49:02 51°13.403 2°51.155 -999 3.370849 33.159768 0.845107
2008-12-09 09:49:07 51°13.404 2°51.151 -999 3.370642 33.157506 0.879931
2008-12-09 09:49:12 51°13.404 2°51.147 -999 3.371056 33.162029 0.845107
2008-12-09 09:49:17 51°13.405 2°51.144 -999 3.371056 33.162029 0.845107
2008-12-09 09:49:22 51°13.406 2°51.14 -999 3.371678 33.167913 0.810283
2008-12-09 09:49:27 51°13.407 2°51.136 -999 3.371678 33.166114 0.845107
2008-12-09 09:49:32 51°13.408 2°51.132 -999 3.371988 33.166807 0.845107
2008-12-09 09:49:37 51°13.409 2°51.128 -999 3.372195 33.167269 0.810283
2008-12-09 09:49:42 51°13.41 2°51.125 -999 3.372299 33.1675 0.810283
2008-12-09 09:49:47 51°13.411 2°51.121 -999 3.372299 33.1675 0.810283
2008-12-09 09:49:52 51°13.412 2°51.117 -999 3.372299 33.1675 0.775459
2008-12-09 09:49:57 51°13.413 2°51.113 -999 3.372403 33.16953 0.879931
2008-12-09 09:50:02 51°13.414 2°51.11 -999 3.375096 33.198925 0.879931
2008-12-09 09:50:07 51°13.415 2°51.106 -999 3.374992 33.196894 0.845107
2008-12-09 09:50:12 51°13.415 2°51.102 -999 3.374888 33.194863 0.879931
2008-12-09 09:50:17 51°13.416 2°51.098 -999 3.374888 33.194863 0.879931
2008-12-09 09:50:22 51°13.416 2°51.095 -999 3.375096 33.196224 0.879931
2008-12-09 09:50:27 51°13.417 2°51.09 -999 3.375406 33.200516 0.845107
2008-12-09 09:50:32 51°13.417 2°51.086 -999 3.375613 33.202777 0.845107
2008-12-09 09:50:37 51°13.418 2°51.083 -999 3.375303 33.199385 0.845107
2008-12-09 09:50:42 51°13.418 2°51.079 -999 3.375821 33.204138 0.879931
2008-12-09 09:50:47 51°13.418 2°51.075 -999 3.375821 33.204138 0.879931
2008-12-09 09:50:52 51°13.419 2°51.071 -999 3.375821 33.203238 0.914755
2008-12-09 09:50:57 51°13.418 2°51.068 -999 3.375924 33.202567 0.810283
2008-12-09 09:51:02 51°13.419 2°51.063 -999 3.376028 33.203698 0.845107
2008-12-09 09:51:07 51°13.419 2°51.059 -999 3.376546 33.209351 0.845107
2008-12-09 09:51:12 51°13.419 2°51.055 -999 3.376753 33.211612 0.810283
2008-12-09 09:51:17 51°13.419 2°51.051 -999 3.376753 33.211612 0.810283
2008-12-09 09:51:22 51°13.419 2°51.046 -999 3.37696 33.212072 0.810283
2008-12-09 09:51:27 51°13.42 2°51.041 -999 3.377167 33.212532 0.810283
2008-12-09 09:51:32 51°13.42 2°51.037 -999 3.377167 33.212532 0.845107
2008-12-09 09:51:37 51°13.421 2°51.032 -999 3.37696 33.211171 0.810283
2008-12-09 09:51:42 51°13.421 2°51.027 -999 3.377581 33.218855 0.845107
2008-12-09 09:51:47 51°13.421 2°51.022 -999 3.377581 33.218855 0.845107
2008-12-09 09:51:52 51°13.42 2°51.018 -999 3.377685 33.219985 0.879931
2008-12-09 09:51:57 51°13.42 2°51.013 -999 3.377892 33.222246 0.845107
2008-12-09 09:52:02 51°13.42 2°51.009 -999 3.377996 33.224278 0.845107
2008-12-09 09:52:07 51°13.419 2°51.004 -999 3.377996 33.224278 0.810283
2008-12-09 09:52:12 51°13.419 2°51 -999 3.377996 33.223377 0.810283
2008-12-09 09:52:17 51°13.418 2°50.995 -999 3.377996 33.223377 0.810283
2008-12-09 09:52:22 51°13.417 2°50.991 -999 3.377996 33.221575 0.810283
2008-12-09 09:52:27 51°13.417 2°50.987 -999 3.378306 33.223165 0.845107
2008-12-09 09:52:32 51°13.416 2°50.982 -999 3.378721 33.226786 0.845107
2008-12-09 09:52:37 51°13.416 2°50.978 -999 3.378721 33.226786 0.810283
2008-12-09 09:52:42 51°13.415 2°50.973 -999 3.378513 33.223625 0.810283
2008-12-09 09:52:47 51°13.414 2°50.969 -999 3.378513 33.223625 0.810283
2008-12-09 09:52:52 51°13.413 2°50.964 -999 3.379135 33.230407 0.775459
2008-12-09 09:52:57 51°13.412 2°50.96 -999 3.379135 33.228606 0.845107
2008-12-09 09:53:02 51°13.411 2°50.955 -999 3.379446 33.231096 0.775459
2008-12-09 09:53:07 51°13.41 2°50.95 -999 3.379446 33.231096 0.775459
2008-12-09 09:53:12 51°13.409 2°50.946 -999 3.379549 33.233127 0.810283
2008-12-09 09:53:17 51°13.407 2°50.941 -999 3.379549 33.233127 0.810283
2008-12-09 09:53:22 51°13.406 2°50.937 -999 3.379549 33.234028 0.775459
2008-12-09 09:53:27 51°13.405 2°50.932 -999 3.37986 33.236518 0.879931
2008-12-09 09:53:32 51°13.404 2°50.928 -999 3.380067 33.23968 0.810283
2008-12-09 09:53:37 51°13.402 2°50.925 -999 3.379653 33.235159 0.775459
2008-12-09 09:53:42 51°13.401 2°50.921 -999 3.37986 33.236518 0.810283
2008-12-09 09:53:47 51°13.4 2°50.917 -999 3.37986 33.236518 0.810283
2008-12-09 09:53:52 51°13.399 2°50.914 -999 3.379549 33.231326 0.775459
2008-12-09 09:53:57 51°13.398 2°50.91 -999 3.380481 33.240598 0.775459
2008-12-09 09:54:02 51°13.396 2°50.906 -999 3.380585 33.241728 0.775459
2008-12-09 09:54:07 51°13.395 2°50.903 -999 3.380481 33.239697 0.810283
2008-12-09 09:54:12 51°13.394 2°50.899 -999 3.380792 33.241286 0.775459
2008-12-09 09:54:17 51°13.393 2°50.896 -999 3.380792 33.241286 0.775459
2008-12-09 09:54:22 51°13.392 2°50.893 -999 3.381206 33.245807 0.775459
2008-12-09 09:54:27 51°13.391 2°50.89 -999 3.380896 33.240614 0.845107
2008-12-09 09:54:32 51°13.39 2°50.887 -999 3.381413 33.245364 0.810283
2008-12-09 09:54:37 51°13.389 2°50.884 -999 3.381621 33.246724 0.775459
2008-12-09 09:54:42 51°13.387 2°50.88 -999 3.381517 33.246495 0.775459
2008-12-09 09:54:47 51°13.386 2°50.877 -999 3.381517 33.246495 0.775459
2008-12-09 09:54:52 51°13.385 2°50.874 -999 3.381621 33.246724 0.810283
2008-12-09 09:54:57 51°13.384 2°50.871 -999 3.381413 33.245364 0.810283
2008-12-09 09:55:02 51°13.383 2°50.868 -999 3.381724 33.248755 0.740634
2008-12-09 09:55:07 51°13.382 2°50.865 -999 3.381828 33.250786 0.775459
2008-12-09 09:55:12 51°13.381 2°50.862 -999 3.381724 33.249656 0.775459
2008-12-09 09:55:17 51°13.38 2°50.858 -999 3.381724 33.249656 0.775459
2008-12-09 09:55:22 51°13.379 2°50.856 -999 3.381931 33.251917 0.845107
2008-12-09 09:55:27 51°13.378 2°50.853 -999 3.382035 33.253948 0.775459
2008-12-09 09:55:32 51°13.378 2°50.85 -999 3.382035 33.253948 0.810283
2008-12-09 09:55:37 51°13.377 2°50.847 -999 3.381828 33.251688 0.810283
2008-12-09 09:55:42 51°13.375 2°50.844 -999 3.382035 33.253047 0.810283
2008-12-09 09:55:47 51°13.374 2°50.842 -999 3.382035 33.253047 0.810283
2008-12-09 09:55:52 51°13.373 2°50.839 -999 3.382449 33.257568 0.810283
2008-12-09 09:55:57 51°13.372 2°50.836 -999 3.382449 33.258469 0.775459
2008-12-09 09:56:02 51°13.371 2°50.833 -999 3.382449 33.258469 0.775459
2008-12-09 09:56:07 51°13.37 2°50.829 -999 3.382553 33.2596 0.810283
2008-12-09 09:56:12 51°13.369 2°50.826 -999 3.382656 33.259829 0.775459
2008-12-09 09:56:17 51°13.368 2°50.823 -999 3.382656 33.259829 0.775459
2008-12-09 09:56:22 51°13.367 2°50.82 -999 3.382656 33.258026 0.775459
2008-12-09 09:56:27 51°13.365 2°50.818 -999 3.38276 33.258255 0.775459
2008-12-09 09:56:32 51°13.364 2°50.815 -999 3.38276 33.258255 0.775459
2008-12-09 09:56:37 51°13.364 2°50.813 -999 3.382967 33.259614 0.810283
2008-12-09 09:56:42 51°13.363 2°50.811 -999 3.383278 33.262103 0.810283
2008-12-09 09:56:47 51°13.362 2°50.81 -999 3.383278 33.262103 0.810283
2008-12-09 09:56:52 51°13.362 2°50.808 -999 3.383278 33.263005 0.775459
2008-12-09 09:56:57 51°13.361 2°50.806 -999 3.383174 33.262776 0.775459
2008-12-09 09:57:02 51°13.361 2°50.805 -999 3.383485 33.265265 0.810283
2008-12-09 09:57:07 51°13.36 2°50.803 -999 3.383381 33.264135 0.775459
2008-12-09 09:57:12 51°13.36 2°50.801 -999 3.383692 33.265723 0.810283
2008-12-09 09:57:17 51°13.359 2°50.799 -999 3.383692 33.265723 0.810283
2008-12-09 09:57:22 51°13.359 2°50.798 -999 3.383796 33.265952 0.810283
2008-12-09 09:57:27 51°13.358 2°50.796 -999 3.383899 33.26618 0.775459
2008-12-09 09:57:32 51°13.358 2°50.795 -999 3.384003 33.265508 0.775459
2008-12-09 09:57:37 51°13.357 2°50.793 -999 3.384003 33.264606 0.845107
2008-12-09 09:57:42 51°13.357 2°50.792 -999 3.38421 33.266867 0.810283
2008-12-09 09:57:47 51°13.357 2°50.791 -999 3.38421 33.266867 0.810283
2008-12-09 09:57:52 51°13.356 2°50.79 -999 3.384106 33.267539 0.810283
2008-12-09 09:57:57 51°13.356 2°50.789 -999 3.384417 33.27093 0.810283
2008-12-09 09:58:02 51°13.356 2°50.789 -999 3.384521 33.271158 0.775459
2008-12-09 09:58:07 51°13.356 2°50.789 -999 3.384417 33.27093 0.845107
2008-12-09 09:58:12 51°13.356 2°50.789 -999 3.384624 33.274091 0.810283
2008-12-09 09:58:17 51°13.355 2°50.788 -999 3.384624 33.274091 0.810283
2008-12-09 09:58:22 51°13.355 2°50.788 -999 3.384831 33.27545 0.775459
2008-12-09 09:58:27 51°13.355 2°50.788 -999 3.384831 33.274549 0.810283
2008-12-09 09:58:32 51°13.355 2°50.789 -999 3.385142 33.276136 0.775459
2008-12-09 09:58:37 51°13.354 2°50.789 -999 3.385039 33.274104 0.740634
2008-12-09 09:58:42 51°13.354 2°50.79 -999 3.385142 33.275234 0.810283
2008-12-09 09:58:47 51°13.354 2°50.791 -999 3.385142 33.275234 0.810283
2008-12-09 09:58:52 51°13.353 2°50.792 -999 3.385142 33.274333 0.740634
2008-12-09 09:58:57 51°13.353 2°50.793 -999 3.384831 33.270943 0.740634
2008-12-09 09:59:02 51°13.353 2°50.795 -999 3.385453 33.277723 0.775459
2008-12-09 09:59:07 51°13.352 2°50.796 -999 3.385246 33.275463 0.740634
2008-12-09 09:59:12 51°13.352 2°50.798 -999 3.38566 33.279081 0.70581
2008-12-09 09:59:17 51°13.351 2°50.799 -999 3.38566 33.279081 0.70581
2008-12-09 09:59:22 51°13.351 2°50.802 -999 3.38566 33.27818 0.740634
2008-12-09 09:59:27 51°13.351 2°50.804 -999 3.385764 33.277507 0.775459
2008-12-09 09:59:32 51°13.35 2°50.805 -999 3.385971 33.279767 0.740634
2008-12-09 09:59:37 51°13.35 2°50.807 -999 3.385971 33.279767 0.740634
2008-12-09 09:59:42 51°13.349 2°50.809 -999 3.386074 33.280897 0.740634
2008-12-09 09:59:47 51°13.349 2°50.811 -999 3.386074 33.280897 0.740634
2008-12-09 09:59:52 51°13.349 2°50.814 -999 3.386178 33.282928 0.740634
2008-12-09 09:59:57 51°13.348 2°50.816 -999 3.386281 33.283157 0.775459
2008-12-09 10:00:02 51°13.348 2°50.818 -999 3.386385 33.284287 0.740634
2008-12-09 10:00:07 51°13.347 2°50.82 -999 3.386385 33.284287 0.740634
2008-12-09 10:00:12 51°13.347 2°50.822 -999 3.386489 33.285417 0.740634
2008-12-09 10:00:17 51°13.347 2°50.825 -999 3.386489 33.285417 0.740634
2008-12-09 10:00:22 51°13.346 2°50.828 -999 3.386592 33.286547 0.70581
2008-12-09 10:00:27 51°13.346 2°50.83 -999 3.386592 33.285645 0.740634
2008-12-09 10:00:32 51°13.345 2°50.832 -999 3.386799 33.287003 0.740634
2008-12-09 10:00:37 51°13.345 2°50.834 -999 3.386903 33.287231 0.740634
2008-12-09 10:00:42 51°13.345 2°50.837 -999 3.387006 33.286558 0.740634
2008-12-09 10:00:47 51°13.344 2°50.839 -999 3.387006 33.286558 0.740634
2008-12-09 10:00:52 51°13.344 2°50.841 -999 3.387214 33.287916 0.70581
2008-12-09 10:00:57 51°13.344 2°50.844 -999 3.387317 33.289046 0.740634
2008-12-09 10:01:02 51°13.344 2°50.846 -999 3.387421 33.290176 0.70581
2008-12-09 10:01:07 51°13.343 2°50.849 -999 3.387421 33.290176 0.670986
2008-12-09 10:01:12 51°13.343 2°50.851 -999 3.387421 33.291078 0.740634
2008-12-09 10:01:17 51°13.342 2°50.853 -999 3.387421 33.291078 0.740634
2008-12-09 10:01:22 51°13.342 2°50.856 -999 3.387421 33.290176 0.70581
2008-12-09 10:01:27 51°13.342 2°50.859 -999 3.387421 33.291078 0.70581
2008-12-09 10:01:32 51°13.342 2°50.861 -999 3.387421 33.291979 0.70581
2008-12-09 10:01:37 51°13.341 2°50.864 -999 3.387421 33.291979 0.670986
2008-12-09 10:01:42 51°13.341 2°50.866 -999 3.387421 33.292881 0.670986
2008-12-09 10:01:47 51°13.341 2°50.869 -999 3.387421 33.292881 0.670986
2008-12-09 10:01:52 51°13.341 2°50.872 -999 3.387317 33.292653 0.70581
2008-12-09 10:01:57 51°13.34 2°50.874 -999 3.387317 33.291751 0.70581
2008-12-09 10:02:02 51°13.34 2°50.877 -999 3.387421 33.292881 0.670986
2008-12-09 10:02:07 51°13.34 2°50.88 -999 3.387421 33.292881 0.636162